Time,TemperatureF,DewpointF,PressureIn,WindDirection,WindDirectionDegrees,WindSpeedMPH,WindSpeedGustMPH,Humidity,HourlyPrecipIn,Conditions,Clouds,dailyrainin,SolarRadiationWatts/m^2,SoftwareType,DateUTC
2013-11-05 00:00:00,37.5,21.5,30.69,SSW,209,4.0,4.0,52,0.00,,,0.00,0,Wunderground v.1.15,2013-11-05 05:00:00,
2013-11-05 00:01:00,37.5,21.5,30.68,SSW,211,4.0,4.0,52,0.00,,,0.00,0,Wunderground v.1.15,2013-11-05 05:01:00,
2013-11-05 00:02:00,37.5,21.5,30.68,SSW,194,4.0,4.0,52,0.00,,,0.00,0,Wunderground v.1.15,2013-11-05 05:02:00,
2013-11-05 00:03:00,37.5,21.5,30.69,SW,220,4.0,4.0,52,0.00,,,0.00,0,Wunderground v.1.15,2013-11-05 05:03:00,
2013-11-05 00:04:00,37.5,21.5,30.69,SSW,200,3.0,4.0,52,0.00,,,0.00,0,Wunderground v.1.15,2013-11-05 05:04:00,
2013-11-05 00:08:00,37.6,21.5,30.68,SSW,202,3.0,5.0,52,0.00,,,0.00,0,Wunderground v.1.15,2013-11-05 05:08:00,
2013-11-05 00:09:00,37.5,21.9,30.68,SSW,208,3.0,5.0,53,0.00,,,0.00,0,Wunderground v.1.15,2013-11-05 05:09:00,
2013-11-05 00:12:00,37.6,22.0,30.68,SSW,192,3.0,6.0,53,0.00,,,0.00,0,Wunderground v.1.15,2013-11-05 05:12:00,
2013-11-05 00:15:00,37.6,22.0,30.68,SSW,203,4.0,6.0,53,0.00,,,0.00,0,Wunderground v.1.15,2013-11-05 05:15:00,
2013-11-05 00:17:00,37.6,22.0,30.68,SSW,212,4.0,6.0,53,0.00,,,0.00,0,Wunderground v.1.15,2013-11-05 05:17:00,
2013-11-05 00:18:00,37.7,22.1,30.68,SW,215,4.0,6.0,53,0.00,,,0.00,0,Wunderground v.1.15,2013-11-05 05:18:00,
2013-11-05 00:19:00,37.6,22.0,30.68,SSW,207,4.0,6.0,53,0.00,,,0.00,0,Wunderground v.1.15,2013-11-05 05:19:00,
2013-11-05 00:21:00,37.6,22.0,30.68,SSW,205,4.0,4.0,53,0.00,,,0.00,0,Wunderground v.1.15,2013-11-05 05:21:00,
2013-11-05 00:23:00,37.5,22.3,30.68,South,173,4.0,4.0,54,0.00,,,0.00,0,Wunderground v.1.15,2013-11-05 05:23:00,
2013-11-05 00:25:00,37.5,22.8,30.68,South,180,3.0,4.0,55,0.00,,,0.00,0,Wunderground v.1.15,2013-11-05 05:25:00,
2013-11-05 00:28:00,37.3,23.4,30.68,South,180,3.0,4.0,57,0.00,,,0.00,0,Wunderground v.1.15,2013-11-05 05:28:00,
2013-11-05 00:29:00,37.2,22.9,30.68,SSW,194,2.0,4.0,56,0.00,,,0.00,0,Wunderground v.1.15,2013-11-05 05:29:00,
2013-11-05 00:33:00,37.2,22.5,30.68,SSW,207,2.0,4.0,55,0.00,,,0.00,0,Wunderground v.1.15,2013-11-05 05:33:00,
2013-11-05 00:34:00,37.2,22.5,30.68,SSW,196,2.0,4.0,55,0.00,,,0.00,0,Wunderground v.1.15,2013-11-05 05:34:00,
2013-11-05 00:35:00,37.3,22.6,30.68,SSW,204,2.0,4.0,55,0.00,,,0.00,0,Wunderground v.1.15,2013-11-05 05:35:00,
2013-11-05 00:39:00,37.2,22.9,30.68,South,188,2.0,4.0,56,0.00,,,0.00,0,Wunderground v.1.15,2013-11-05 05:39:00,
2013-11-05 00:40:00,37.2,22.5,30.68,SSW,196,2.0,2.0,55,0.00,,,0.00,0,Wunderground v.1.15,2013-11-05 05:40:00,
2013-11-05 00:41:00,37.3,22.6,30.68,SSW,196,2.0,2.0,55,0.00,,,0.00,0,Wunderground v.1.15,2013-11-05 05:41:00,
2013-11-05 00:43:00,37.3,22.6,30.68,SSW,202,2.0,2.0,55,0.00,,,0.00,0,Wunderground v.1.15,2013-11-05 05:43:00,
2013-11-05 00:47:00,37.5,23.2,30.68,SSW,193,2.0,3.0,56,0.00,,,0.00,0,Wunderground v.1.15,2013-11-05 05:47:00,
2013-11-05 00:49:00,37.5,22.8,30.68,SSW,193,1.0,3.0,55,0.00,,,0.00,0,Wunderground v.1.15,2013-11-05 05:49:00,
2013-11-05 00:50:00,37.6,22.9,30.68,SSW,193,1.0,1.0,55,0.00,,,0.00,0,Wunderground v.1.15,2013-11-05 05:50:00,
2013-11-05 00:51:00,37.6,22.9,30.68,South,172,1.0,1.0,55,0.00,,,0.00,0,Wunderground v.1.15,2013-11-05 05:51:00,
2013-11-05 00:52:00,37.6,22.9,30.68,South,172,1.0,1.0,55,0.00,,,0.00,0,Wunderground v.1.15,2013-11-05 05:52:00,
2013-11-05 00:55:00,37.6,22.9,30.68,South,172,1.0,1.0,55,0.00,,,0.00,0,Wunderground v.1.15,2013-11-05 05:55:00,
2013-11-05 00:56:00,37.6,22.9,30.68,South,172,1.0,1.0,55,0.00,,,0.00,0,Wunderground v.1.15,2013-11-05 05:56:00,
2013-11-05 00:58:00,37.5,24.9,30.68,South,172,0.0,1.0,60,0.00,,,0.00,0,Wunderground v.1.15,2013-11-05 05:58:00,
2013-11-05 01:01:00,37.4,25.6,30.68,South,172,1.0,1.0,62,0.00,,,0.00,0,Wunderground v.1.15,2013-11-05 06:01:00,
2013-11-05 01:03:00,37.1,25.7,30.68,South,172,1.0,2.0,63,0.00,,,0.00,0,Wunderground v.1.15,2013-11-05 06:03:00,
2013-11-05 01:04:00,37.0,25.9,30.68,South,172,1.0,2.0,64,0.00,,,0.00,0,Wunderground v.1.15,2013-11-05 06:04:00,
2013-11-05 01:05:00,36.8,25.8,30.68,South,172,1.0,2.0,64,0.00,,,0.00,0,Wunderground v.1.15,2013-11-05 06:05:00,
2013-11-05 01:06:00,36.6,25.2,30.68,South,172,1.0,2.0,63,0.00,,,0.00,0,Wunderground v.1.15,2013-11-05 06:06:00,
2013-11-05 01:07:00,36.5,24.7,30.68,South,175,1.0,2.0,62,0.00,,,0.00,0,Wunderground v.1.15,2013-11-05 06:07:00,
2013-11-05 01:08:00,36.3,24.5,30.68,SSW,206,1.0,2.0,62,0.00,,,0.00,0,Wunderground v.1.15,2013-11-05 06:08:00,
2013-11-05 01:10:00,36.2,24.8,30.68,SSW,200,1.0,1.0,63,0.00,,,0.00,0,Wunderground v.1.15,2013-11-05 06:10:00,
2013-11-05 01:11:00,36.2,25.2,30.68,SSW,198,1.0,2.0,64,0.00,,,0.00,0,Wunderground v.1.15,2013-11-05 06:11:00,
2013-11-05 01:12:00,36.1,25.1,30.67,South,186,1.0,2.0,64,0.00,,,0.00,0,Wunderground v.1.15,2013-11-05 06:12:00,
2013-11-05 01:13:00,36.0,25.0,30.67,SSW,195,1.0,2.0,64,0.00,,,0.00,0,Wunderground v.1.15,2013-11-05 06:13:00,
2013-11-05 01:16:00,35.7,25.4,30.67,SSW,198,2.0,2.0,66,0.00,,,0.00,0,Wunderground v.1.15,2013-11-05 06:16:00,
2013-11-05 01:18:00,35.6,25.4,30.68,SSW,198,2.0,2.0,66,0.00,,,0.00,0,Wunderground v.1.15,2013-11-05 06:18:00,
2013-11-05 01:19:00,35.6,25.4,30.68,SSW,198,2.0,2.0,66,0.00,,,0.00,0,Wunderground v.1.15,2013-11-05 06:19:00,
2013-11-05 01:20:00,35.5,25.3,30.68,SSW,198,1.0,1.0,66,0.00,,,0.00,0,Wunderground v.1.15,2013-11-05 06:20:00,
2013-11-05 01:22:00,35.5,25.6,30.68,SSW,200,1.0,1.0,67,0.00,,,0.00,0,Wunderground v.1.15,2013-11-05 06:22:00,
2013-11-05 01:25:00,35.4,25.2,30.68,SSW,205,1.0,1.0,66,0.00,,,0.00,0,Wunderground v.1.15,2013-11-05 06:25:00,
2013-11-05 01:27:00,35.5,25.3,30.68,SSW,205,0.0,1.0,66,0.00,,,0.00,0,Wunderground v.1.15,2013-11-05 06:27:00,
2013-11-05 01:28:00,35.5,25.3,30.68,SSW,205,0.0,1.0,66,0.00,,,0.00,0,Wunderground v.1.15,2013-11-05 06:28:00,
2013-11-05 01:29:00,35.5,25.3,30.68,SSW,205,0.0,1.0,66,0.00,,,0.00,0,Wunderground v.1.15,2013-11-05 06:29:00,
2013-11-05 01:30:00,35.5,25.3,30.68,SSE,168,0.0,3.0,66,0.00,,,0.00,0,Wunderground v.1.15,2013-11-05 06:30:00,
2013-11-05 01:32:00,35.5,25.6,30.68,SSE,168,0.0,3.0,67,0.00,,,0.00,0,Wunderground v.1.15,2013-11-05 06:32:00,
2013-11-05 01:35:00,35.4,25.9,30.68,SSE,168,0.0,3.0,68,0.00,,,0.00,0,Wunderground v.1.15,2013-11-05 06:35:00,
2013-11-05 01:36:00,35.4,25.9,30.68,SSE,168,0.0,3.0,68,0.00,,,0.00,0,Wunderground v.1.15,2013-11-05 06:36:00,
2013-11-05 01:37:00,35.3,25.8,30.68,SSE,168,0.0,3.0,68,0.00,,,0.00,0,Wunderground v.1.15,2013-11-05 06:37:00,
2013-11-05 01:38:00,35.3,26.1,30.68,SSE,168,1.0,3.0,69,0.00,,,0.00,0,Wunderground v.1.15,2013-11-05 06:38:00,
2013-11-05 01:41:00,35.2,26.0,30.68,SSE,168,0.0,0.0,69,0.00,,,0.00,0,Wunderground v.1.15,2013-11-05 06:41:00,
2013-11-05 01:45:00,35.2,26.0,30.69,South,175,0.0,1.0,69,0.00,,,0.00,0,Wunderground v.1.15,2013-11-05 06:45:00,
2013-11-05 01:46:00,35.2,26.0,30.69,South,175,0.0,1.0,69,0.00,,,0.00,0,Wunderground v.1.15,2013-11-05 06:46:00,
2013-11-05 01:48:00,35.1,25.9,30.68,South,175,0.0,1.0,69,0.00,,,0.00,0,Wunderground v.1.15,2013-11-05 06:48:00,
2013-11-05 01:49:00,35.1,25.9,30.68,South,175,0.0,1.0,69,0.00,,,0.00,0,Wunderground v.1.15,2013-11-05 06:49:00,
2013-11-05 01:50:00,35.1,26.3,30.68,South,175,0.0,1.0,70,0.00,,,0.00,0,Wunderground v.1.15,2013-11-05 06:50:00,
2013-11-05 01:54:00,35.1,26.3,30.69,South,175,0.0,1.0,70,0.00,,,0.00,0,Wunderground v.1.15,2013-11-05 06:54:00,
2013-11-05 01:55:00,35.1,25.9,30.69,South,175,0.0,1.0,69,0.00,,,0.00,0,Wunderground v.1.15,2013-11-05 06:55:00,
2013-11-05 01:57:00,35.1,25.6,30.69,South,175,0.0,1.0,68,0.00,,,0.00,0,Wunderground v.1.15,2013-11-05 06:57:00,
2013-11-05 01:58:00,35.1,25.6,30.69,South,175,0.0,1.0,68,0.00,,,0.00,0,Wunderground v.1.15,2013-11-05 06:58:00,
2013-11-05 02:00:00,35.1,25.2,30.69,South,175,0.0,0.0,67,0.00,,,0.00,0,Wunderground v.1.15,2013-11-05 07:00:00,
2013-11-05 02:02:00,35.1,25.2,30.69,South,175,0.0,0.0,67,0.00,,,0.00,0,Wunderground v.1.15,2013-11-05 07:02:00,
2013-11-05 02:03:00,35.1,25.2,30.68,South,175,0.0,0.0,67,0.00,,,0.00,0,Wunderground v.1.15,2013-11-05 07:03:00,
2013-11-05 02:06:00,35.2,25.7,30.69,South,175,0.0,1.0,68,0.00,,,0.00,0,Wunderground v.1.15,2013-11-05 07:06:00,
2013-11-05 02:07:00,35.2,25.7,30.69,South,175,0.0,1.0,68,0.00,,,0.00,0,Wunderground v.1.15,2013-11-05 07:07:00,
2013-11-05 02:09:00,35.2,26.0,30.69,South,175,0.0,1.0,69,0.00,,,0.00,0,Wunderground v.1.15,2013-11-05 07:09:00,
2013-11-05 02:12:00,35.2,26.0,30.69,South,175,0.0,0.0,69,0.00,,,0.00,0,Wunderground v.1.15,2013-11-05 07:12:00,
2013-11-05 02:13:00,35.2,26.0,30.69,South,175,0.0,1.0,69,0.00,,,0.00,0,Wunderground v.1.15,2013-11-05 07:13:00,
2013-11-05 02:15:00,35.3,26.1,30.69,South,175,0.0,1.0,69,0.00,,,0.00,0,Wunderground v.1.15,2013-11-05 07:15:00,
2013-11-05 02:16:00,35.2,26.0,30.69,South,175,0.0,1.0,69,0.00,,,0.00,0,Wunderground v.1.15,2013-11-05 07:16:00,
2013-11-05 02:17:00,35.3,26.1,30.69,South,175,0.0,1.0,69,0.00,,,0.00,0,Wunderground v.1.15,2013-11-05 07:17:00,
2013-11-05 02:21:00,35.3,25.8,30.68,South,175,0.0,1.0,68,0.00,,,0.00,0,Wunderground v.1.15,2013-11-05 07:21:00,
2013-11-05 02:22:00,35.3,26.1,30.68,South,175,0.0,1.0,69,0.00,,,0.00,0,Wunderground v.1.15,2013-11-05 07:22:00,
2013-11-05 02:23:00,35.3,25.8,30.68,South,175,0.0,1.0,68,0.00,,,0.00,0,Wunderground v.1.15,2013-11-05 07:23:00,
2013-11-05 02:25:00,35.3,26.1,30.68,South,175,0.0,1.0,69,0.00,,,0.00,0,Wunderground v.1.15,2013-11-05 07:25:00,
2013-11-05 02:27:00,35.2,26.0,30.68,South,175,1.0,1.0,69,0.00,,,0.00,0,Wunderground v.1.15,2013-11-05 07:27:00,
2013-11-05 02:29:00,35.1,25.9,30.68,South,175,1.0,1.0,69,0.00,,,0.00,0,Wunderground v.1.15,2013-11-05 07:29:00,
2013-11-05 02:30:00,35.0,25.9,30.68,South,175,1.0,1.0,69,0.00,,,0.00,0,Wunderground v.1.15,2013-11-05 07:30:00,
2013-11-05 02:32:00,35.0,25.9,30.68,South,175,1.0,1.0,69,0.00,,,0.00,0,Wunderground v.1.15,2013-11-05 07:32:00,
2013-11-05 02:33:00,35.0,25.9,30.68,South,175,1.0,1.0,69,0.00,,,0.00,0,Wunderground v.1.15,2013-11-05 07:33:00,
2013-11-05 02:34:00,34.9,25.8,30.68,South,175,1.0,1.0,69,0.00,,,0.00,0,Wunderground v.1.15,2013-11-05 07:34:00,
2013-11-05 02:37:00,34.8,25.7,30.67,South,175,0.0,1.0,69,0.00,,,0.00,0,Wunderground v.1.15,2013-11-05 07:37:00,
2013-11-05 02:38:00,34.8,25.7,30.67,South,175,0.0,1.0,69,0.00,,,0.00,0,Wunderground v.1.15,2013-11-05 07:38:00,
2013-11-05 02:40:00,34.7,25.2,30.67,South,175,0.0,0.0,68,0.00,,,0.00,0,Wunderground v.1.15,2013-11-05 07:40:00,
2013-11-05 02:42:00,34.7,25.6,30.67,South,175,0.0,0.0,69,0.00,,,0.00,0,Wunderground v.1.15,2013-11-05 07:42:00,
2013-11-05 02:43:00,34.7,25.6,30.67,South,175,0.0,0.0,69,0.00,,,0.00,0,Wunderground v.1.15,2013-11-05 07:43:00,
2013-11-05 02:44:00,34.7,25.6,30.67,South,175,0.0,0.0,69,0.00,,,0.00,0,Wunderground v.1.15,2013-11-05 07:44:00,
2013-11-05 02:45:00,34.7,25.6,30.68,SW,229,0.0,1.0,69,0.00,,,0.00,0,Wunderground v.1.15,2013-11-05 07:45:00,
2013-11-05 02:48:00,34.6,25.5,30.68,WSW,248,0.0,2.0,69,0.00,,,0.00,0,Wunderground v.1.15,2013-11-05 07:48:00,
2013-11-05 02:49:00,34.6,24.8,30.68,WNW,284,1.0,2.0,67,0.00,,,0.00,0,Wunderground v.1.15,2013-11-05 07:49:00,
2013-11-05 02:50:00,34.6,24.8,30.68,WNW,287,1.0,1.0,67,0.00,,,0.00,0,Wunderground v.1.15,2013-11-05 07:50:00,
2013-11-05 02:51:00,34.7,25.2,30.68,WNW,287,1.0,1.0,68,0.00,,,0.00,0,Wunderground v.1.15,2013-11-05 07:51:00,
2013-11-05 02:54:00,34.7,24.9,30.68,WNW,287,1.0,2.0,67,0.00,,,0.00,0,Wunderground v.1.15,2013-11-05 07:54:00,
2013-11-05 02:57:00,34.7,24.5,30.68,WNW,287,1.0,2.0,66,0.00,,,0.00,0,Wunderground v.1.15,2013-11-05 07:57:00,
2013-11-05 02:58:00,34.7,24.5,30.68,WNW,287,1.0,2.0,66,0.00,,,0.00,0,Wunderground v.1.15,2013-11-05 07:58:00,
2013-11-05 03:00:00,34.8,25.0,30.68,WNW,287,0.0,0.0,67,0.00,,,0.00,0,Wunderground v.1.15,2013-11-05 08:00:00,
2013-11-05 03:03:00,34.9,25.8,30.69,SW,214,0.0,1.0,69,0.00,,,0.00,0,Wunderground v.1.15,2013-11-05 08:03:00,
2013-11-05 03:04:00,34.9,25.8,30.69,SW,214,0.0,1.0,69,0.00,,,0.00,0,Wunderground v.1.15,2013-11-05 08:04:00,
2013-11-05 03:05:00,34.9,26.1,30.69,SW,214,0.0,1.0,70,0.00,,,0.00,0,Wunderground v.1.15,2013-11-05 08:05:00,
2013-11-05 03:06:00,34.9,25.8,30.68,SSW,203,0.0,2.0,69,0.00,,,0.00,0,Wunderground v.1.15,2013-11-05 08:06:00,
2013-11-05 03:07:00,34.9,25.8,30.68,SSW,203,0.0,2.0,69,0.00,,,0.00,0,Wunderground v.1.15,2013-11-05 08:07:00,
2013-11-05 03:09:00,35.0,25.9,30.68,SSW,203,0.0,2.0,69,0.00,,,0.00,0,Wunderground v.1.15,2013-11-05 08:09:00,
2013-11-05 03:12:00,35.0,26.5,30.68,South,184,1.0,2.0,71,0.00,,,0.00,0,Wunderground v.1.15,2013-11-05 08:12:00,
2013-11-05 03:13:00,35.0,26.5,30.68,SSE,159,1.0,2.0,71,0.00,,,0.00,0,Wunderground v.1.15,2013-11-05 08:13:00,
2013-11-05 03:16:00,34.9,26.4,30.68,SSE,148,1.0,2.0,71,0.00,,,0.00,0,Wunderground v.1.15,2013-11-05 08:16:00,
2013-11-05 03:17:00,34.9,26.4,30.68,SSE,148,1.0,2.0,71,0.00,,,0.00,0,Wunderground v.1.15,2013-11-05 08:17:00,
2013-11-05 03:19:00,34.8,26.4,30.68,SSE,148,1.0,2.0,71,0.00,,,0.00,0,Wunderground v.1.15,2013-11-05 08:19:00,
2013-11-05 03:20:00,34.8,26.7,30.67,SSE,148,1.0,1.0,72,0.00,,,0.00,0,Wunderground v.1.15,2013-11-05 08:20:00,
2013-11-05 03:23:00,34.7,26.6,30.67,SSW,201,1.0,3.0,72,0.00,,,0.00,0,Wunderground v.1.15,2013-11-05 08:23:00,
2013-11-05 03:25:00,34.6,26.8,30.67,SSW,201,1.0,3.0,73,0.00,,,0.00,0,Wunderground v.1.15,2013-11-05 08:25:00,
2013-11-05 03:26:00,34.6,26.8,30.67,SW,219,1.0,3.0,73,0.00,,,0.00,0,Wunderground v.1.15,2013-11-05 08:26:00,
2013-11-05 03:28:00,34.6,26.8,30.67,West,263,1.0,3.0,73,0.00,,,0.00,0,Wunderground v.1.15,2013-11-05 08:28:00,
2013-11-05 03:30:00,34.7,26.9,30.67,WNW,286,1.0,1.0,73,0.00,,,0.00,0,Wunderground v.1.15,2013-11-05 08:30:00,
2013-11-05 03:31:00,34.7,26.6,30.67,WNW,287,1.0,1.0,72,0.00,,,0.00,0,Wunderground v.1.15,2013-11-05 08:31:00,
2013-11-05 03:34:00,34.8,26.4,30.67,WNW,287,1.0,1.0,71,0.00,,,0.00,0,Wunderground v.1.15,2013-11-05 08:34:00,
2013-11-05 03:35:00,34.8,26.7,30.67,SSW,193,1.0,1.0,72,0.00,,,0.00,0,Wunderground v.1.15,2013-11-05 08:35:00,
2013-11-05 03:36:00,34.8,26.7,30.67,South,174,1.0,1.0,72,0.00,,,0.00,0,Wunderground v.1.15,2013-11-05 08:36:00,
2013-11-05 03:37:00,34.8,27.0,30.67,SSE,167,1.0,1.0,73,0.00,,,0.00,0,Wunderground v.1.15,2013-11-05 08:37:00,
2013-11-05 03:41:00,34.7,26.9,30.67,South,190,1.0,4.0,73,0.00,,,0.00,0,Wunderground v.1.15,2013-11-05 08:41:00,
2013-11-05 03:42:00,34.6,27.2,30.67,South,186,1.0,4.0,74,0.00,,,0.00,0,Wunderground v.1.15,2013-11-05 08:42:00,
2013-11-05 03:43:00,34.6,27.2,30.67,South,190,2.0,4.0,74,0.00,,,0.00,0,Wunderground v.1.15,2013-11-05 08:43:00,
2013-11-05 03:44:00,34.5,26.7,30.67,SSW,205,2.0,4.0,73,0.00,,,0.00,0,Wunderground v.1.15,2013-11-05 08:44:00,
2013-11-05 03:46:00,34.4,27.0,30.67,SSW,207,2.0,4.0,74,0.00,,,0.00,0,Wunderground v.1.15,2013-11-05 08:46:00,
2013-11-05 03:51:00,34.3,26.5,30.68,NW,306,1.0,2.0,73,0.00,,,0.00,0,Wunderground v.1.15,2013-11-05 08:51:00,
2013-11-05 03:52:00,34.4,26.6,30.68,NW,307,1.0,2.0,73,0.00,,,0.00,0,Wunderground v.1.15,2013-11-05 08:52:00,
2013-11-05 03:54:00,34.4,26.3,30.68,NW,307,1.0,2.0,72,0.00,,,0.00,0,Wunderground v.1.15,2013-11-05 08:54:00,
2013-11-05 03:55:00,34.4,26.6,30.68,NW,307,1.0,2.0,73,0.00,,,0.00,0,Wunderground v.1.15,2013-11-05 08:55:00,
2013-11-05 03:58:00,34.5,26.4,30.68,NW,307,1.0,2.0,72,0.00,,,0.00,0,Wunderground v.1.15,2013-11-05 08:58:00,
2013-11-05 03:59:00,34.5,26.4,30.68,NW,307,1.0,2.0,72,0.00,,,0.00,0,Wunderground v.1.15,2013-11-05 08:59:00,
2013-11-05 04:01:00,34.6,26.5,30.68,NW,307,0.0,0.0,72,0.00,,,0.00,0,Wunderground v.1.15,2013-11-05 09:01:00,
2013-11-05 04:02:00,34.6,26.5,30.68,NW,307,0.0,0.0,72,0.00,,,0.00,0,Wunderground v.1.15,2013-11-05 09:02:00,
2013-11-05 04:03:00,34.6,26.2,30.68,NW,307,0.0,0.0,71,0.00,,,0.00,0,Wunderground v.1.15,2013-11-05 09:03:00,
2013-11-05 04:04:00,34.6,26.2,30.68,NW,307,0.0,0.0,71,0.00,,,0.00,0,Wunderground v.1.15,2013-11-05 09:04:00,
2013-11-05 04:08:00,34.7,26.9,30.69,NW,306,0.0,1.0,73,0.00,,,0.00,0,Wunderground v.1.15,2013-11-05 09:08:00,
2013-11-05 04:09:00,34.7,26.6,30.69,NW,306,0.0,2.0,72,0.00,,,0.00,0,Wunderground v.1.15,2013-11-05 09:09:00,
2013-11-05 04:10:00,34.8,27.0,30.69,WNW,301,0.0,1.0,73,0.00,,,0.00,0,Wunderground v.1.15,2013-11-05 09:10:00,
2013-11-05 04:13:00,34.8,27.0,30.69,WSW,253,1.0,1.0,73,0.00,,,0.00,0,Wunderground v.1.15,2013-11-05 09:13:00,
2013-11-05 04:14:00,34.8,27.0,30.69,SSW,207,1.0,1.0,73,0.00,,,0.00,0,Wunderground v.1.15,2013-11-05 09:14:00,
2013-11-05 04:15:00,34.8,27.0,30.69,South,189,1.0,1.0,73,0.00,,,0.00,0,Wunderground v.1.15,2013-11-05 09:15:00,
2013-11-05 04:20:00,34.8,27.4,30.69,South,189,1.0,1.0,74,0.00,,,0.00,0,Wunderground v.1.15,2013-11-05 09:20:00,
2013-11-05 04:22:00,34.8,27.4,30.69,South,189,0.0,1.0,74,0.00,,,0.00,0,Wunderground v.1.15,2013-11-05 09:22:00,
2013-11-05 04:23:00,34.8,27.4,30.69,South,189,0.0,1.0,74,0.00,,,0.00,0,Wunderground v.1.15,2013-11-05 09:23:00,
2013-11-05 04:24:00,34.8,27.0,30.69,South,189,0.0,1.0,73,0.00,,,0.00,0,Wunderground v.1.15,2013-11-05 09:24:00,
2013-11-05 04:25:00,34.7,26.9,30.69,South,189,0.0,1.0,73,0.00,,,0.00,0,Wunderground v.1.15,2013-11-05 09:25:00,
2013-11-05 04:28:00,34.7,26.9,30.69,South,189,0.0,1.0,73,0.00,,,0.00,0,Wunderground v.1.15,2013-11-05 09:28:00,
2013-11-05 04:29:00,34.7,26.9,30.69,South,189,0.0,1.0,73,0.00,,,0.00,0,Wunderground v.1.15,2013-11-05 09:29:00,
2013-11-05 04:30:00,34.7,27.3,30.69,South,189,0.0,0.0,74,0.00,,,0.00,0,Wunderground v.1.15,2013-11-05 09:30:00,
2013-11-05 04:34:00,34.7,26.9,30.69,South,189,0.0,1.0,73,0.00,,,0.00,0,Wunderground v.1.15,2013-11-05 09:34:00,
2013-11-05 04:35:00,34.8,26.7,30.69,South,189,0.0,1.0,72,0.00,,,0.00,0,Wunderground v.1.15,2013-11-05 09:35:00,
2013-11-05 04:36:00,34.8,27.0,30.69,South,189,0.0,1.0,73,0.00,,,0.00,0,Wunderground v.1.15,2013-11-05 09:36:00,
2013-11-05 04:38:00,34.8,26.7,30.69,SSW,193,0.0,1.0,72,0.00,,,0.00,0,Wunderground v.1.15,2013-11-05 09:38:00,
2013-11-05 04:40:00,34.8,27.0,30.69,SSW,193,1.0,1.0,73,0.00,,,0.00,0,Wunderground v.1.15,2013-11-05 09:40:00,
2013-11-05 04:41:00,34.8,27.0,30.69,SSW,193,1.0,1.0,73,0.00,,,0.00,0,Wunderground v.1.15,2013-11-05 09:41:00,
2013-11-05 04:43:00,34.8,27.0,30.69,SSW,193,1.0,2.0,73,0.00,,,0.00,0,Wunderground v.1.15,2013-11-05 09:43:00,
2013-11-05 04:45:00,34.7,26.9,30.69,SSW,193,1.0,2.0,73,0.00,,,0.00,0,Wunderground v.1.15,2013-11-05 09:45:00,
2013-11-05 04:46:00,34.7,26.9,30.69,SSW,193,1.0,2.0,73,0.00,,,0.00,0,Wunderground v.1.15,2013-11-05 09:46:00,
2013-11-05 04:47:00,34.7,26.9,30.69,SSW,193,1.0,2.0,73,0.00,,,0.00,0,Wunderground v.1.15,2013-11-05 09:47:00,
2013-11-05 04:50:00,34.7,26.9,30.69,SSW,193,1.0,1.0,73,0.00,,,0.00,0,Wunderground v.1.15,2013-11-05 09:50:00,
2013-11-05 04:51:00,34.7,26.9,30.69,SSW,193,0.0,1.0,73,0.00,,,0.00,0,Wunderground v.1.15,2013-11-05 09:51:00,
2013-11-05 04:52:00,34.7,26.9,30.69,SSW,193,0.0,1.0,73,0.00,,,0.00,0,Wunderground v.1.15,2013-11-05 09:52:00,
2013-11-05 04:54:00,34.7,26.9,30.69,SSW,193,0.0,1.0,73,0.00,,,0.00,0,Wunderground v.1.15,2013-11-05 09:54:00,
2013-11-05 04:58:00,34.7,26.9,30.69,SSW,193,0.0,1.0,73,0.00,,,0.00,0,Wunderground v.1.15,2013-11-05 09:58:00,
2013-11-05 04:59:00,34.8,27.0,30.69,SSW,193,0.0,1.0,73,0.00,,,0.00,0,Wunderground v.1.15,2013-11-05 09:59:00,
2013-11-05 05:00:00,34.8,26.7,30.69,SSW,193,0.0,0.0,72,0.00,,,0.00,0,Wunderground v.1.15,2013-11-05 10:00:00,
2013-11-05 05:02:00,34.8,27.0,30.69,SSW,193,0.0,0.0,73,0.00,,,0.00,0,Wunderground v.1.15,2013-11-05 10:02:00,
2013-11-05 05:03:00,34.9,27.1,30.69,SSW,193,0.0,0.0,73,0.00,,,0.00,0,Wunderground v.1.15,2013-11-05 10:03:00,
2013-11-05 05:06:00,35.0,27.2,30.69,SSW,193,0.0,0.0,73,0.00,,,0.00,0,Wunderground v.1.15,2013-11-05 10:06:00,
2013-11-05 05:07:00,35.0,26.9,30.68,SSW,193,0.0,0.0,72,0.00,,,0.00,0,Wunderground v.1.15,2013-11-05 10:07:00,
2013-11-05 05:08:00,35.1,27.0,30.68,SSW,193,0.0,0.0,72,0.00,,,0.00,0,Wunderground v.1.15,2013-11-05 10:08:00,
2013-11-05 05:09:00,35.1,27.3,30.68,South,183,0.0,0.0,73,0.00,,,0.00,0,Wunderground v.1.15,2013-11-05 10:09:00,
2013-11-05 05:10:00,35.1,27.3,30.68,South,190,0.0,0.0,73,0.00,,,0.00,0,Wunderground v.1.15,2013-11-05 10:10:00,
2013-11-05 05:12:00,35.0,27.2,30.68,SSW,205,0.0,0.0,73,0.00,,,0.00,0,Wunderground v.1.15,2013-11-05 10:12:00,
2013-11-05 05:16:00,34.9,27.1,30.69,SSW,205,0.0,0.0,73,0.00,,,0.00,0,Wunderground v.1.15,2013-11-05 10:16:00,
2013-11-05 05:17:00,34.9,27.5,30.69,SSW,205,0.0,0.0,74,0.00,,,0.00,0,Wunderground v.1.15,2013-11-05 10:17:00,
2013-11-05 05:19:00,34.9,27.1,30.69,SSW,212,0.0,0.0,73,0.00,,,0.00,0,Wunderground v.1.15,2013-11-05 10:19:00,
2013-11-05 05:20:00,34.8,26.7,30.69,SSW,213,0.0,0.0,72,0.00,,,0.00,0,Wunderground v.1.15,2013-11-05 10:20:00,
2013-11-05 05:22:00,34.9,26.4,30.69,NW,304,0.0,0.0,71,0.00,,,0.00,0,Wunderground v.1.15,2013-11-05 10:22:00,
2013-11-05 05:23:00,34.9,26.4,30.69,NW,304,0.0,0.0,71,0.00,,,0.00,0,Wunderground v.1.15,2013-11-05 10:23:00,
2013-11-05 05:24:00,35.0,26.2,30.69,NW,304,0.0,0.0,70,0.00,,,0.00,0,Wunderground v.1.15,2013-11-05 10:24:00,
2013-11-05 05:25:00,35.0,26.5,30.69,NW,304,0.0,0.0,71,0.00,,,0.00,0,Wunderground v.1.15,2013-11-05 10:25:00,
2013-11-05 05:28:00,35.1,27.0,30.69,NW,304,0.0,0.0,72,0.00,,,0.00,0,Wunderground v.1.15,2013-11-05 10:28:00,
2013-11-05 05:29:00,35.1,27.0,30.69,NW,304,0.0,0.0,72,0.00,,,0.00,0,Wunderground v.1.15,2013-11-05 10:29:00,
2013-11-05 05:30:00,35.2,27.1,30.69,NW,304,0.0,0.0,72,0.00,,,0.00,0,Wunderground v.1.15,2013-11-05 10:30:00,
2013-11-05 05:33:00,35.2,27.4,30.70,NW,304,0.0,0.0,73,0.00,,,0.00,0,Wunderground v.1.15,2013-11-05 10:33:00,
2013-11-05 05:34:00,35.2,27.4,30.69,NW,304,0.0,0.0,73,0.00,,,0.00,0,Wunderground v.1.15,2013-11-05 10:34:00,
2013-11-05 05:35:00,35.2,27.4,30.69,NW,304,0.0,0.0,73,0.00,,,0.00,0,Wunderground v.1.15,2013-11-05 10:35:00,
2013-11-05 05:39:00,35.3,27.5,30.69,NW,304,0.0,0.0,73,0.00,,,0.00,0,Wunderground v.1.15,2013-11-05 10:39:00,
2013-11-05 05:41:00,35.3,27.5,30.69,NW,304,0.0,0.0,73,0.00,,,0.00,0,Wunderground v.1.15,2013-11-05 10:41:00,
2013-11-05 05:44:00,35.3,27.2,30.69,NW,304,0.0,0.0,72,0.00,,,0.00,0,Wunderground v.1.15,2013-11-05 10:44:00,
2013-11-05 05:45:00,35.3,27.5,30.69,WNW,303,0.0,0.0,73,0.00,,,0.00,0,Wunderground v.1.15,2013-11-05 10:45:00,
2013-11-05 05:46:00,35.3,27.5,30.69,WSW,256,0.0,0.0,73,0.00,,,0.00,0,Wunderground v.1.15,2013-11-05 10:46:00,
2013-11-05 05:47:00,35.3,27.2,30.69,WSW,246,0.0,0.0,72,0.00,,,0.00,0,Wunderground v.1.15,2013-11-05 10:47:00,
2013-11-05 05:49:00,35.4,26.6,30.69,SSW,199,0.0,2.0,70,0.00,,,0.00,0,Wunderground v.1.15,2013-11-05 10:49:00,
2013-11-05 05:50:00,35.4,26.6,30.69,SSW,192,0.0,2.0,70,0.00,,,0.00,0,Wunderground v.1.15,2013-11-05 10:50:00,
2013-11-05 05:52:00,35.4,27.3,30.68,SSW,192,1.0,2.0,72,0.00,,,0.00,0,Wunderground v.1.15,2013-11-05 10:52:00,
2013-11-05 05:54:00,35.4,27.3,30.68,South,184,1.0,2.0,72,0.00,,,0.00,0,Wunderground v.1.15,2013-11-05 10:54:00,
2013-11-05 05:55:00,35.3,27.2,30.68,South,182,2.0,2.0,72,0.00,,,0.00,0,Wunderground v.1.15,2013-11-05 10:55:00,
2013-11-05 05:56:00,35.3,27.2,30.68,South,181,2.0,2.0,72,0.00,,,0.00,0,Wunderground v.1.15,2013-11-05 10:56:00,
2013-11-05 05:57:00,35.2,27.1,30.68,South,184,2.0,2.0,72,0.00,,,0.00,0,Wunderground v.1.15,2013-11-05 10:57:00,
2013-11-05 05:58:00,35.2,27.1,30.68,South,181,2.0,2.0,72,0.00,,,0.00,0,Wunderground v.1.15,2013-11-05 10:58:00,
2013-11-05 06:00:00,35.1,27.0,30.68,South,190,2.0,2.0,72,0.00,,,0.00,0,Wunderground v.1.15,2013-11-05 11:00:00,
2013-11-05 06:01:00,35.1,27.0,30.68,South,190,2.0,2.0,72,0.00,,,0.00,0,Wunderground v.1.15,2013-11-05 11:01:00,
2013-11-05 06:02:00,35.0,26.9,30.68,SSW,200,2.0,2.0,72,0.00,,,0.00,0,Wunderground v.1.15,2013-11-05 11:02:00,
2013-11-05 06:06:00,35.0,26.9,30.68,SSW,207,1.0,2.0,72,0.00,,,0.00,0,Wunderground v.1.15,2013-11-05 11:06:00,
2013-11-05 06:08:00,35.0,26.9,30.68,SSW,207,1.0,2.0,72,0.00,,,0.00,0,Wunderground v.1.15,2013-11-05 11:08:00,
2013-11-05 06:09:00,35.0,26.9,30.68,SSW,210,1.0,2.0,72,0.00,,,0.00,0,Wunderground v.1.15,2013-11-05 11:09:00,
2013-11-05 06:11:00,35.0,26.9,30.68,SSW,210,0.0,1.0,72,0.00,,,0.00,0,Wunderground v.1.15,2013-11-05 11:11:00,
2013-11-05 06:13:00,35.0,26.5,30.68,West,275,0.0,1.0,71,0.00,,,0.00,0,Wunderground v.1.15,2013-11-05 11:13:00,
2013-11-05 06:15:00,35.1,26.6,30.68,WSW,257,0.0,1.0,71,0.00,,,0.00,0,Wunderground v.1.15,2013-11-05 11:15:00,
2013-11-05 06:16:00,35.1,26.6,30.68,WSW,257,0.0,1.0,71,0.00,,,0.00,0,Wunderground v.1.15,2013-11-05 11:16:00,
2013-11-05 06:18:00,35.2,26.4,30.68,NNW,336,0.0,2.0,70,0.00,,,0.00,0,Wunderground v.1.15,2013-11-05 11:18:00,
2013-11-05 06:20:00,35.2,26.4,30.68,NNW,336,1.0,1.0,70,0.00,,,0.00,0,Wunderground v.1.15,2013-11-05 11:20:00,
2013-11-05 06:21:00,35.2,26.4,30.68,NNW,336,1.0,1.0,70,0.00,,,0.00,0,Wunderground v.1.15,2013-11-05 11:21:00,
2013-11-05 06:22:00,35.2,26.4,30.69,NNW,336,1.0,1.0,70,0.00,,,0.00,0,Wunderground v.1.15,2013-11-05 11:22:00,
2013-11-05 06:23:00,35.2,26.4,30.69,NNW,336,1.0,1.0,70,0.00,,,0.00,0,Wunderground v.1.15,2013-11-05 11:23:00,
2013-11-05 06:24:00,35.2,26.4,30.69,NNW,336,1.0,1.0,70,0.00,,,0.00,0,Wunderground v.1.15,2013-11-05 11:24:00,
2013-11-05 06:26:00,35.2,26.4,30.69,WSW,238,0.0,1.0,70,0.00,,,0.00,0,Wunderground v.1.15,2013-11-05 11:26:00,
2013-11-05 06:28:00,35.2,26.7,30.69,WSW,238,1.0,1.0,71,0.00,,,0.00,0,Wunderground v.1.15,2013-11-05 11:28:00,
2013-11-05 06:29:00,35.2,26.7,30.69,WSW,238,0.0,1.0,71,0.00,,,0.00,0,Wunderground v.1.15,2013-11-05 11:29:00,
2013-11-05 06:31:00,35.2,26.7,30.69,WSW,238,0.0,2.0,71,0.00,,,0.00,0,Wunderground v.1.15,2013-11-05 11:31:00,
2013-11-05 06:33:00,35.2,27.1,30.69,WSW,237,1.0,2.0,72,0.00,,,0.00,0,Wunderground v.1.15,2013-11-05 11:33:00,
2013-11-05 06:34:00,35.2,27.1,30.68,WSW,237,1.0,2.0,72,0.00,,,0.00,0,Wunderground v.1.15,2013-11-05 11:34:00,
2013-11-05 06:37:00,35.2,27.1,30.68,WSW,237,0.0,2.0,72,0.00,,,0.00,0,Wunderground v.1.15,2013-11-05 11:37:00,
2013-11-05 06:39:00,35.1,27.3,30.68,WSW,237,0.0,2.0,73,0.00,,,0.00,0,Wunderground v.1.15,2013-11-05 11:39:00,
2013-11-05 06:40:00,35.2,27.1,30.69,WSW,246,0.0,1.0,72,0.00,,,0.00,0,Wunderground v.1.15,2013-11-05 11:40:00,
2013-11-05 06:41:00,35.1,27.0,30.69,West,271,0.0,1.0,72,0.00,,,0.00,0,Wunderground v.1.15,2013-11-05 11:41:00,
2013-11-05 06:43:00,35.2,27.4,30.69,NW,321,1.0,1.0,73,0.00,,,0.00,0,Wunderground v.1.15,2013-11-05 11:43:00,
2013-11-05 06:44:00,35.1,27.0,30.69,NW,321,1.0,1.0,72,0.00,,,0.00,0,Wunderground v.1.15,2013-11-05 11:44:00,
2013-11-05 06:48:00,35.2,27.4,30.69,NW,321,1.0,1.0,73,0.00,,,0.00,5,Wunderground v.1.15,2013-11-05 11:48:00,
2013-11-05 06:50:00,35.2,27.4,30.69,NW,321,1.0,1.0,73,0.00,,,0.00,5,Wunderground v.1.15,2013-11-05 11:50:00,
2013-11-05 06:51:00,35.3,27.5,30.69,NW,321,0.0,1.0,73,0.00,,,0.00,7,Wunderground v.1.15,2013-11-05 11:51:00,
2013-11-05 06:52:00,35.3,27.5,30.69,NW,321,0.0,1.0,73,0.00,,,0.00,9,Wunderground v.1.15,2013-11-05 11:52:00,
2013-11-05 06:53:00,35.3,27.5,30.69,NW,321,0.0,1.0,73,0.00,,,0.00,11,Wunderground v.1.15,2013-11-05 11:53:00,
2013-11-05 06:56:00,35.4,27.6,30.69,West,277,0.0,2.0,73,0.00,,,0.00,12,Wunderground v.1.15,2013-11-05 11:56:00,
2013-11-05 06:57:00,35.4,27.6,30.69,WSW,246,0.0,2.0,73,0.00,,,0.00,12,Wunderground v.1.15,2013-11-05 11:57:00,
2013-11-05 06:59:00,35.5,27.7,30.69,SSW,202,1.0,2.0,73,0.00,,,0.00,12,Wunderground v.1.15,2013-11-05 11:59:00,
2013-11-05 07:01:00,35.5,27.4,30.69,SSW,202,2.0,2.0,72,0.00,,,0.00,14,Wunderground v.1.15,2013-11-05 12:01:00,
2013-11-05 07:04:00,35.6,27.5,30.69,SSW,200,2.0,2.0,72,0.00,,,0.00,14,Wunderground v.1.15,2013-11-05 12:04:00,
2013-11-05 07:05:00,35.6,27.8,30.69,SSW,200,2.0,2.0,73,0.00,,,0.00,16,Wunderground v.1.15,2013-11-05 12:05:00,
2013-11-05 07:08:00,35.7,27.6,30.69,SSW,200,2.0,2.0,72,0.00,,,0.00,21,Wunderground v.1.15,2013-11-05 12:08:00,
2013-11-05 07:09:00,35.6,27.8,30.69,SSW,200,2.0,2.0,73,0.00,,,0.00,25,Wunderground v.1.15,2013-11-05 12:09:00,
2013-11-05 07:10:00,35.7,27.9,30.69,SSW,200,2.0,2.0,73,0.00,,,0.00,25,Wunderground v.1.15,2013-11-05 12:10:00,
2013-11-05 07:12:00,35.6,27.8,30.69,SSW,200,1.0,2.0,73,0.00,,,0.00,26,Wunderground v.1.15,2013-11-05 12:12:00,
2013-11-05 07:15:00,35.6,27.8,30.69,SSW,200,1.0,2.0,73,0.00,,,0.00,26,Wunderground v.1.15,2013-11-05 12:15:00,
2013-11-05 07:16:00,35.7,27.9,30.69,SSW,200,1.0,2.0,73,0.00,,,0.00,26,Wunderground v.1.15,2013-11-05 12:16:00,
2013-11-05 07:17:00,35.7,27.9,30.69,SSW,200,1.0,2.0,73,0.00,,,0.00,28,Wunderground v.1.15,2013-11-05 12:17:00,
2013-11-05 07:18:00,35.7,27.9,30.69,SSW,200,1.0,2.0,73,0.00,,,0.00,37,Wunderground v.1.15,2013-11-05 12:18:00,
2013-11-05 07:21:00,35.7,27.9,30.69,SSW,200,1.0,1.0,73,0.00,,,0.00,39,Wunderground v.1.15,2013-11-05 12:21:00,
2013-11-05 07:22:00,35.7,27.9,30.69,SSW,200,1.0,1.0,73,0.00,,,0.00,44,Wunderground v.1.15,2013-11-05 12:22:00,
2013-11-05 07:23:00,35.8,28.0,30.69,SSW,200,1.0,1.0,73,0.00,,,0.00,51,Wunderground v.1.15,2013-11-05 12:23:00,
2013-11-05 07:25:00,35.8,28.3,30.69,SSW,200,0.0,1.0,74,0.00,,,0.00,54,Wunderground v.1.15,2013-11-05 12:25:00,
2013-11-05 07:27:00,35.9,28.1,30.69,SSW,200,1.0,1.0,73,0.00,,,0.00,51,Wunderground v.1.15,2013-11-05 12:27:00,
2013-11-05 07:28:00,35.9,28.4,30.69,SSW,200,1.0,1.0,74,0.00,,,0.00,54,Wunderground v.1.15,2013-11-05 12:28:00,
2013-11-05 07:31:00,36.0,28.5,30.69,SSW,200,0.0,0.0,74,0.00,,,0.00,63,Wunderground v.1.15,2013-11-05 12:31:00,
2013-11-05 07:34:00,36.1,27.9,30.69,SW,215,1.0,2.0,72,0.00,,,0.00,67,Wunderground v.1.15,2013-11-05 12:34:00,
2013-11-05 07:36:00,36.2,28.4,30.69,SW,215,0.0,2.0,73,0.00,,,0.00,63,Wunderground v.1.15,2013-11-05 12:36:00,
2013-11-05 07:37:00,36.2,28.4,30.69,SW,215,0.0,2.0,73,0.00,,,0.00,67,Wunderground v.1.15,2013-11-05 12:37:00,
2013-11-05 07:41:00,36.4,28.2,30.69,SW,215,0.0,0.0,72,0.00,,,0.00,83,Wunderground v.1.15,2013-11-05 12:41:00,
2013-11-05 07:42:00,36.5,28.3,30.69,SW,215,0.0,0.0,72,0.00,,,0.00,74,Wunderground v.1.15,2013-11-05 12:42:00,
2013-11-05 07:44:00,36.6,28.4,30.69,SSW,213,0.0,0.0,72,0.00,,,0.00,76,Wunderground v.1.15,2013-11-05 12:44:00,
2013-11-05 07:46:00,36.8,28.6,30.69,SSE,155,0.0,1.0,72,0.00,,,0.00,84,Wunderground v.1.15,2013-11-05 12:46:00,
2013-11-05 07:48:00,36.9,28.7,30.70,SSE,155,0.0,1.0,72,0.00,,,0.00,62,Wunderground v.1.15,2013-11-05 12:48:00,
2013-11-05 07:50:00,37.0,28.8,30.70,SSE,159,0.0,1.0,72,0.00,,,0.00,83,Wunderground v.1.15,2013-11-05 12:50:00,
2013-11-05 07:51:00,37.1,28.9,30.70,SSE,159,0.0,1.0,72,0.00,,,0.00,97,Wunderground v.1.15,2013-11-05 12:51:00,
2013-11-05 07:52:00,37.1,28.9,30.70,SSE,159,1.0,1.0,72,0.00,,,0.00,107,Wunderground v.1.15,2013-11-05 12:52:00,
2013-11-05 07:56:00,37.3,29.1,30.70,SSE,155,0.0,1.0,72,0.00,,,0.00,69,Wunderground v.1.15,2013-11-05 12:56:00,
2013-11-05 07:57:00,37.4,28.9,30.70,SSE,153,0.0,1.0,71,0.00,,,0.00,74,Wunderground v.1.15,2013-11-05 12:57:00,
2013-11-05 07:59:00,37.5,28.6,30.69,SSE,154,0.0,1.0,70,0.00,,,0.00,63,Wunderground v.1.15,2013-11-05 12:59:00,
2013-11-05 08:00:00,37.6,28.7,30.70,SSE,149,0.0,1.0,70,0.00,,,0.00,63,Wunderground v.1.15,2013-11-05 13:00:00,
2013-11-05 08:01:00,37.7,28.8,30.70,SW,214,0.0,1.0,70,0.00,,,0.00,67,Wunderground v.1.15,2013-11-05 13:01:00,
2013-11-05 08:02:00,37.7,28.8,30.70,SW,214,0.0,1.0,70,0.00,,,0.00,69,Wunderground v.1.15,2013-11-05 13:02:00,
2013-11-05 08:03:00,37.7,28.8,30.70,SW,214,0.0,1.0,70,0.00,,,0.00,70,Wunderground v.1.15,2013-11-05 13:03:00,
2013-11-05 08:06:00,37.9,29.0,30.70,SW,214,0.0,1.0,70,0.00,,,0.00,86,Wunderground v.1.15,2013-11-05 13:06:00,
2013-11-05 08:07:00,37.9,29.0,30.70,SW,214,0.0,1.0,70,0.00,,,0.00,90,Wunderground v.1.15,2013-11-05 13:07:00,
2013-11-05 08:10:00,38.1,29.5,30.70,SE,138,0.0,2.0,71,0.00,,,0.00,90,Wunderground v.1.15,2013-11-05 13:10:00,
2013-11-05 08:13:00,38.1,29.2,30.71,SE,145,1.0,2.0,70,0.00,,,0.00,91,Wunderground v.1.15,2013-11-05 13:13:00,
2013-11-05 08:14:00,38.2,29.3,30.71,SE,146,1.0,2.0,70,0.00,,,0.00,95,Wunderground v.1.15,2013-11-05 13:14:00,
2013-11-05 08:15:00,38.1,29.5,30.71,SE,146,1.0,2.0,71,0.00,,,0.00,98,Wunderground v.1.15,2013-11-05 13:15:00,
2013-11-05 08:16:00,38.1,29.5,30.71,SSE,148,1.0,2.0,71,0.00,,,0.00,81,Wunderground v.1.15,2013-11-05 13:16:00,
2013-11-05 08:18:00,38.1,29.2,30.71,SE,125,1.0,2.0,70,0.00,,,0.00,72,Wunderground v.1.15,2013-11-05 13:18:00,
2013-11-05 08:19:00,38.0,29.4,30.71,SE,126,2.0,2.0,71,0.00,,,0.00,76,Wunderground v.1.15,2013-11-05 13:19:00,
2013-11-05 08:22:00,38.0,29.4,30.71,SSE,168,1.0,2.0,71,0.00,,,0.00,84,Wunderground v.1.15,2013-11-05 13:22:00,
2013-11-05 08:23:00,38.0,29.4,30.71,SE,144,1.0,2.0,71,0.00,,,0.00,86,Wunderground v.1.15,2013-11-05 13:23:00,
2013-11-05 08:24:00,38.0,29.4,30.71,SE,144,1.0,2.0,71,0.00,,,0.00,84,Wunderground v.1.15,2013-11-05 13:24:00,
2013-11-05 08:27:00,37.9,29.3,30.71,SE,144,1.0,2.0,71,0.00,,,0.00,90,Wunderground v.1.15,2013-11-05 13:27:00,
2013-11-05 08:29:00,37.9,29.3,30.71,SE,144,1.0,2.0,71,0.00,,,0.00,90,Wunderground v.1.15,2013-11-05 13:29:00,
2013-11-05 08:30:00,37.9,29.3,30.71,SE,144,1.0,1.0,71,0.00,,,0.00,93,Wunderground v.1.15,2013-11-05 13:30:00,
2013-11-05 08:31:00,37.9,29.3,30.71,SE,144,1.0,1.0,71,0.00,,,0.00,105,Wunderground v.1.15,2013-11-05 13:31:00,
2013-11-05 08:32:00,37.9,29.7,30.71,SE,144,1.0,2.0,72,0.00,,,0.00,111,Wunderground v.1.15,2013-11-05 13:32:00,
2013-11-05 08:33:00,37.9,29.7,30.71,SE,144,1.0,2.0,72,0.00,,,0.00,118,Wunderground v.1.15,2013-11-05 13:33:00,
2013-11-05 08:37:00,38.0,29.8,30.71,SE,144,1.0,2.0,72,0.00,,,0.00,160,Wunderground v.1.15,2013-11-05 13:37:00,
2013-11-05 08:38:00,38.0,29.8,30.71,SE,144,1.0,2.0,72,0.00,,,0.00,160,Wunderground v.1.15,2013-11-05 13:38:00,
2013-11-05 08:39:00,38.1,29.9,30.71,SE,144,1.0,2.0,72,0.00,,,0.00,132,Wunderground v.1.15,2013-11-05 13:39:00,
2013-11-05 08:41:00,38.2,30.0,30.71,SE,144,1.0,1.0,72,0.00,,,0.00,146,Wunderground v.1.15,2013-11-05 13:41:00,
2013-11-05 08:43:00,38.3,30.1,30.71,SE,144,1.0,2.0,72,0.00,,,0.00,148,Wunderground v.1.15,2013-11-05 13:43:00,
2013-11-05 08:44:00,38.4,30.2,30.71,SE,144,1.0,2.0,72,0.00,,,0.00,172,Wunderground v.1.15,2013-11-05 13:44:00,
2013-11-05 08:45:00,38.4,29.8,30.71,SE,144,1.0,2.0,71,0.00,,,0.00,204,Wunderground v.1.15,2013-11-05 13:45:00,
2013-11-05 08:46:00,38.5,29.9,30.71,SE,144,1.0,2.0,71,0.00,,,0.00,163,Wunderground v.1.15,2013-11-05 13:46:00,
2013-11-05 08:51:00,38.7,30.1,30.71,SSE,149,2.0,4.0,71,0.00,,,0.00,239,Wunderground v.1.15,2013-11-05 13:51:00,
2013-11-05 08:52:00,38.8,29.8,30.71,SE,134,2.0,4.0,70,0.00,,,0.00,181,Wunderground v.1.15,2013-11-05 13:52:00,
2013-11-05 08:53:00,38.8,29.8,30.70,SE,134,2.0,4.0,70,0.00,,,0.00,246,Wunderground v.1.15,2013-11-05 13:53:00,
2013-11-05 08:55:00,38.9,29.9,30.70,SE,140,2.0,4.0,70,0.00,,,0.00,297,Wunderground v.1.15,2013-11-05 13:55:00,
2013-11-05 08:56:00,39.0,30.7,30.70,SE,140,2.0,4.0,72,0.00,,,0.00,251,Wunderground v.1.15,2013-11-05 13:56:00,
2013-11-05 08:57:00,39.1,30.5,30.70,SSE,155,2.0,4.0,71,0.00,,,0.00,251,Wunderground v.1.15,2013-11-05 13:57:00,
2013-11-05 09:00:00,39.5,30.5,30.70,SSE,165,1.0,1.0,70,0.00,,,0.00,322,Wunderground v.1.15,2013-11-05 14:00:00,
2013-11-05 09:01:00,39.6,30.6,30.70,South,180,1.0,2.0,70,0.00,,,0.00,343,Wunderground v.1.15,2013-11-05 14:01:00,
2013-11-05 09:04:00,40.0,30.6,30.70,South,170,1.0,2.0,69,0.00,,,0.00,376,Wunderground v.1.15,2013-11-05 14:04:00,
2013-11-05 09:07:00,40.4,30.7,30.70,SE,141,1.0,3.0,68,0.00,,,0.00,397,Wunderground v.1.15,2013-11-05 14:07:00,
2013-11-05 09:08:00,40.4,30.7,30.69,SE,142,1.0,3.0,68,0.00,,,0.00,192,Wunderground v.1.15,2013-11-05 14:08:00,
2013-11-05 09:10:00,40.5,30.8,30.69,SE,142,1.0,1.0,68,0.00,,,0.00,220,Wunderground v.1.15,2013-11-05 14:10:00,
2013-11-05 09:12:00,40.6,31.2,30.69,SE,142,1.0,1.0,69,0.00,,,0.00,197,Wunderground v.1.15,2013-11-05 14:12:00,
2013-11-05 09:16:00,40.9,30.8,30.70,South,173,1.0,2.0,67,0.00,,,0.00,246,Wunderground v.1.15,2013-11-05 14:16:00,
2013-11-05 09:17:00,41.0,30.9,30.70,South,173,1.0,2.0,67,0.00,,,0.00,246,Wunderground v.1.15,2013-11-05 14:17:00,
2013-11-05 09:18:00,41.1,31.3,30.70,WSW,254,1.0,2.0,68,0.00,,,0.00,429,Wunderground v.1.15,2013-11-05 14:18:00,
2013-11-05 09:19:00,41.3,31.5,30.70,WNW,293,1.0,2.0,68,0.00,,,0.00,462,Wunderground v.1.15,2013-11-05 14:19:00,
2013-11-05 09:22:00,41.7,31.5,30.70,SSW,211,1.0,2.0,67,0.00,,,0.00,424,Wunderground v.1.15,2013-11-05 14:22:00,
2013-11-05 09:23:00,41.9,31.7,30.70,WSW,246,1.0,2.0,67,0.00,,,0.00,424,Wunderground v.1.15,2013-11-05 14:23:00,
2013-11-05 09:27:00,42.4,31.8,30.70,West,260,1.0,2.0,66,0.00,,,0.00,452,Wunderground v.1.15,2013-11-05 14:27:00,
2013-11-05 09:28:00,42.4,31.8,30.70,West,260,1.0,2.0,66,0.00,,,0.00,496,Wunderground v.1.15,2013-11-05 14:28:00,
2013-11-05 09:29:00,42.6,32.0,30.70,West,260,1.0,2.0,66,0.00,,,0.00,443,Wunderground v.1.15,2013-11-05 14:29:00,
2013-11-05 09:30:00,42.7,32.1,30.70,West,260,1.0,1.0,66,0.00,,,0.00,496,Wunderground v.1.15,2013-11-05 14:30:00,
2013-11-05 09:34:00,43.3,32.3,30.70,WNW,294,0.0,2.0,65,0.00,,,0.00,360,Wunderground v.1.15,2013-11-05 14:34:00,
2013-11-05 09:35:00,43.4,32.0,30.70,WNW,294,0.0,2.0,64,0.00,,,0.00,360,Wunderground v.1.15,2013-11-05 14:35:00,
2013-11-05 09:37:00,43.6,33.0,30.70,WNW,291,0.0,2.0,66,0.00,,,0.00,466,Wunderground v.1.15,2013-11-05 14:37:00,
2013-11-05 09:38:00,43.8,32.8,30.70,WNW,291,0.0,2.0,65,0.00,,,0.00,471,Wunderground v.1.15,2013-11-05 14:38:00,
2013-11-05 09:40:00,44.1,32.7,30.70,SE,146,0.0,0.0,64,0.00,,,0.00,471,Wunderground v.1.15,2013-11-05 14:40:00,
2013-11-05 09:41:00,44.2,32.8,30.70,SSW,205,0.0,1.0,64,0.00,,,0.00,471,Wunderground v.1.15,2013-11-05 14:41:00,
2013-11-05 09:44:00,44.5,32.7,30.70,WSW,256,1.0,1.0,63,0.00,,,0.00,322,Wunderground v.1.15,2013-11-05 14:44:00,
2013-11-05 09:45:00,44.6,32.8,30.70,WSW,256,0.0,1.0,63,0.00,,,0.00,267,Wunderground v.1.15,2013-11-05 14:45:00,
2013-11-05 09:47:00,44.7,32.5,30.70,West,273,0.0,1.0,62,0.00,,,0.00,202,Wunderground v.1.15,2013-11-05 14:47:00,
2013-11-05 09:50:00,44.9,33.5,30.70,WSW,253,1.0,2.0,64,0.00,,,0.00,211,Wunderground v.1.15,2013-11-05 14:50:00,
2013-11-05 09:52:00,45.0,33.2,30.70,SSW,192,1.0,3.0,63,0.00,,,0.00,204,Wunderground v.1.15,2013-11-05 14:52:00,
2013-11-05 09:53:00,45.0,32.8,30.70,SSE,168,1.0,3.0,62,0.00,,,0.00,214,Wunderground v.1.15,2013-11-05 14:53:00,
2013-11-05 09:57:00,44.8,32.6,30.70,ESE,123,1.0,4.0,62,0.00,,,0.00,334,Wunderground v.1.15,2013-11-05 14:57:00,
2013-11-05 09:58:00,44.8,32.6,30.70,SE,133,2.0,4.0,62,0.00,,,0.00,341,Wunderground v.1.15,2013-11-05 14:58:00,
2013-11-05 09:59:00,44.8,32.6,30.70,SE,133,2.0,4.0,62,0.00,,,0.00,301,Wunderground v.1.15,2013-11-05 14:59:00,
2013-11-05 10:01:00,44.8,32.6,30.70,WSW,252,1.0,1.0,62,0.00,,,0.00,257,Wunderground v.1.15,2013-11-05 15:01:00,
2013-11-05 10:05:00,44.9,32.3,30.70,NNW,346,1.0,2.0,61,0.00,,,0.00,311,Wunderground v.1.15,2013-11-05 15:05:00,
2013-11-05 10:06:00,45.0,32.8,30.70,NNW,346,1.0,2.0,62,0.00,,,0.00,294,Wunderground v.1.15,2013-11-05 15:06:00,
2013-11-05 10:10:00,45.2,32.9,30.70,NNW,346,1.0,1.0,62,0.00,,,0.00,555,Wunderground v.1.15,2013-11-05 15:10:00,
2013-11-05 10:11:00,45.2,32.9,30.70,North,360,1.0,2.0,62,0.00,,,0.00,494,Wunderground v.1.15,2013-11-05 15:11:00,
2013-11-05 10:12:00,45.3,32.6,30.70,WNW,286,1.0,2.0,61,0.00,,,0.00,446,Wunderground v.1.15,2013-11-05 15:12:00,
2013-11-05 10:18:00,46.0,33.3,30.69,NNW,340,1.0,2.0,61,0.00,,,0.00,526,Wunderground v.1.15,2013-11-05 15:18:00,
2013-11-05 10:19:00,46.0,33.3,30.69,WNW,292,1.0,4.0,61,0.00,,,0.00,422,Wunderground v.1.15,2013-11-05 15:19:00,
2013-11-05 10:22:00,46.1,33.4,30.69,WNW,290,1.0,2.0,61,0.00,,,0.00,432,Wunderground v.1.15,2013-11-05 15:22:00,
2013-11-05 10:23:00,46.1,33.4,30.69,WNW,290,1.0,2.0,61,0.00,,,0.00,432,Wunderground v.1.15,2013-11-05 15:23:00,
2013-11-05 10:24:00,46.2,33.9,30.69,South,178,1.0,2.0,62,0.00,,,0.00,550,Wunderground v.1.15,2013-11-05 15:24:00,
2013-11-05 10:27:00,46.7,35.2,30.69,NE,49,1.0,2.0,64,0.00,,,0.00,350,Wunderground v.1.15,2013-11-05 15:27:00,
2013-11-05 10:30:00,46.9,34.1,30.69,ESE,119,1.0,1.0,61,0.00,,,0.00,334,Wunderground v.1.15,2013-11-05 15:30:00,
2013-11-05 10:31:00,47.0,34.6,30.69,West,277,1.0,1.0,62,0.00,,,0.00,339,Wunderground v.1.15,2013-11-05 15:31:00,
2013-11-05 10:32:00,47.0,35.4,30.69,SSW,205,1.0,1.0,64,0.00,,,0.00,338,Wunderground v.1.15,2013-11-05 15:32:00,
2013-11-05 10:36:00,47.2,34.4,30.69,SE,136,2.0,5.0,61,0.00,,,0.00,359,Wunderground v.1.15,2013-11-05 15:36:00,
2013-11-05 10:37:00,47.1,34.3,30.69,SE,137,2.0,5.0,61,0.00,,,0.00,452,Wunderground v.1.15,2013-11-05 15:37:00,
2013-11-05 10:40:00,47.0,34.2,30.69,SE,127,2.0,2.0,61,0.00,,,0.00,466,Wunderground v.1.15,2013-11-05 15:40:00,
2013-11-05 10:42:00,47.0,34.6,30.69,SE,128,2.0,2.0,62,0.00,,,0.00,478,Wunderground v.1.15,2013-11-05 15:42:00,
2013-11-05 10:43:00,47.0,34.6,30.69,SE,128,2.0,2.0,62,0.00,,,0.00,471,Wunderground v.1.15,2013-11-05 15:43:00,
2013-11-05 10:44:00,47.0,34.6,30.69,South,175,2.0,3.0,62,0.00,,,0.00,471,Wunderground v.1.15,2013-11-05 15:44:00,
2013-11-05 10:46:00,47.2,35.2,30.69,SSE,155,2.0,3.0,63,0.00,,,0.00,311,Wunderground v.1.15,2013-11-05 15:46:00,
2013-11-05 10:47:00,47.2,35.2,30.69,SSE,155,2.0,3.0,63,0.00,,,0.00,311,Wunderground v.1.15,2013-11-05 15:47:00,
2013-11-05 10:50:00,47.7,35.3,30.69,SE,137,1.0,5.0,62,0.00,,,0.00,403,Wunderground v.1.15,2013-11-05 15:50:00,
2013-11-05 10:51:00,47.8,35.4,30.69,SE,136,1.0,5.0,62,0.00,,,0.00,404,Wunderground v.1.15,2013-11-05 15:51:00,
2013-11-05 10:52:00,47.9,35.5,30.69,SE,126,2.0,7.0,62,0.00,,,0.00,355,Wunderground v.1.15,2013-11-05 15:52:00,
2013-11-05 10:54:00,47.9,35.1,30.69,SE,130,2.0,7.0,61,0.00,,,0.00,385,Wunderground v.1.15,2013-11-05 15:54:00,
2013-11-05 10:55:00,47.9,35.1,30.69,SE,134,3.0,7.0,61,0.00,,,0.00,373,Wunderground v.1.15,2013-11-05 15:55:00,
2013-11-05 10:56:00,47.9,35.1,30.69,ESE,114,3.0,7.0,61,0.00,,,0.00,360,Wunderground v.1.15,2013-11-05 15:56:00,
2013-11-05 10:57:00,47.8,34.6,30.69,East,88,3.0,7.0,60,0.00,,,0.00,373,Wunderground v.1.15,2013-11-05 15:57:00,
2013-11-05 11:01:00,47.6,34.8,30.69,SE,146,3.0,5.0,61,0.00,,,0.00,396,Wunderground v.1.15,2013-11-05 16:01:00,
2013-11-05 11:02:00,47.6,35.2,30.69,ESE,123,3.0,5.0,62,0.00,,,0.00,397,Wunderground v.1.15,2013-11-05 16:02:00,
2013-11-05 11:03:00,47.5,34.7,30.69,South,173,3.0,5.0,61,0.00,,,0.00,383,Wunderground v.1.15,2013-11-05 16:03:00,
2013-11-05 11:07:00,47.5,35.1,30.68,SSE,152,3.0,5.0,62,0.00,,,0.00,330,Wunderground v.1.15,2013-11-05 16:07:00,
2013-11-05 11:08:00,47.5,35.5,30.68,ESE,123,2.0,5.0,63,0.00,,,0.00,306,Wunderground v.1.15,2013-11-05 16:08:00,
2013-11-05 11:09:00,47.6,35.6,30.68,SW,227,2.0,5.0,63,0.00,,,0.00,295,Wunderground v.1.15,2013-11-05 16:09:00,
2013-11-05 11:10:00,47.7,35.7,30.68,WNW,301,2.0,3.0,63,0.00,,,0.00,258,Wunderground v.1.15,2013-11-05 16:10:00,
2013-11-05 11:13:00,47.8,35.8,30.68,SE,146,2.0,4.0,63,0.00,,,0.00,227,Wunderground v.1.15,2013-11-05 16:13:00,
2013-11-05 11:15:00,47.9,35.9,30.68,SE,146,2.0,4.0,63,0.00,,,0.00,237,Wunderground v.1.15,2013-11-05 16:15:00,
2013-11-05 11:16:00,47.9,35.9,30.67,ENE,59,2.0,4.0,63,0.00,,,0.00,272,Wunderground v.1.15,2013-11-05 16:16:00,
2013-11-05 11:17:00,47.9,35.9,30.67,SE,130,2.0,4.0,63,0.00,,,0.00,288,Wunderground v.1.15,2013-11-05 16:17:00,
2013-11-05 11:20:00,48.0,36.0,30.67,ESE,119,3.0,3.0,63,0.00,,,0.00,281,Wunderground v.1.15,2013-11-05 16:20:00,
2013-11-05 11:22:00,48.0,36.0,30.67,SW,222,2.0,3.0,63,0.00,,,0.00,250,Wunderground v.1.15,2013-11-05 16:22:00,
2013-11-05 11:24:00,48.1,36.1,30.67,NW,306,2.0,3.0,63,0.00,,,0.00,290,Wunderground v.1.15,2013-11-05 16:24:00,
2013-11-05 11:25:00,48.2,36.2,30.67,West,279,2.0,3.0,63,0.00,,,0.00,390,Wunderground v.1.15,2013-11-05 16:25:00,
2013-11-05 11:26:00,48.3,36.7,30.66,NW,319,2.0,3.0,64,0.00,,,0.00,345,Wunderground v.1.15,2013-11-05 16:26:00,
2013-11-05 11:28:00,48.5,36.5,30.66,ESE,121,2.0,4.0,63,0.00,,,0.00,362,Wunderground v.1.15,2013-11-05 16:28:00,
2013-11-05 11:30:00,48.6,36.2,30.66,ESE,113,2.0,2.0,62,0.00,,,0.00,352,Wunderground v.1.15,2013-11-05 16:30:00,
2013-11-05 11:33:00,48.8,36.8,30.66,WNW,288,2.0,4.0,63,0.00,,,0.00,408,Wunderground v.1.15,2013-11-05 16:33:00,
2013-11-05 11:34:00,48.8,36.4,30.66,WNW,286,2.0,4.0,62,0.00,,,0.00,413,Wunderground v.1.15,2013-11-05 16:34:00,
2013-11-05 11:35:00,48.8,36.8,30.66,NW,304,2.0,4.0,63,0.00,,,0.00,420,Wunderground v.1.15,2013-11-05 16:35:00,
2013-11-05 11:38:00,49.0,36.9,30.66,SE,131,2.0,4.0,63,0.00,,,0.00,292,Wunderground v.1.15,2013-11-05 16:38:00,
2013-11-05 11:39:00,49.1,36.6,30.66,SE,132,2.0,5.0,62,0.00,,,0.00,339,Wunderground v.1.15,2013-11-05 16:39:00,
2013-11-05 11:40:00,49.1,36.6,30.66,SE,124,2.0,2.0,62,0.00,,,0.00,322,Wunderground v.1.15,2013-11-05 16:40:00,
2013-11-05 11:41:00,49.1,37.0,30.66,SE,127,2.0,2.0,63,0.00,,,0.00,336,Wunderground v.1.15,2013-11-05 16:41:00,
2013-11-05 11:44:00,49.3,36.8,30.66,SSE,153,2.0,6.0,62,0.00,,,0.00,439,Wunderground v.1.15,2013-11-05 16:44:00,
2013-11-05 11:46:00,49.4,37.7,30.66,SE,124,3.0,6.0,64,0.00,,,0.00,522,Wunderground v.1.15,2013-11-05 16:46:00,
2013-11-05 11:47:00,49.5,37.0,30.66,SSE,153,3.0,6.0,62,0.00,,,0.00,522,Wunderground v.1.15,2013-11-05 16:47:00,
2013-11-05 11:49:00,49.6,37.1,30.65,East,88,3.0,6.0,62,0.00,,,0.00,629,Wunderground v.1.15,2013-11-05 16:49:00,
2013-11-05 11:52:00,49.9,37.0,30.65,WSW,240,3.0,3.0,61,0.00,,,0.00,636,Wunderground v.1.15,2013-11-05 16:52:00,
2013-11-05 11:55:00,50.4,38.3,30.65,ESE,123,2.0,5.0,63,0.00,,,0.00,466,Wunderground v.1.15,2013-11-05 16:55:00,
2013-11-05 11:56:00,50.6,38.5,30.65,ESE,121,2.0,5.0,63,0.00,,,0.00,436,Wunderground v.1.15,2013-11-05 16:56:00,
2013-11-05 11:59:00,50.9,37.5,30.65,ENE,61,2.0,5.0,60,0.00,,,0.00,338,Wunderground v.1.15,2013-11-05 16:59:00,
2013-11-05 12:00:00,50.9,37.9,30.64,NNW,348,1.0,1.0,61,0.00,,,0.00,334,Wunderground v.1.15,2013-11-05 17:00:00,
2013-11-05 12:01:00,50.9,37.9,30.64,NNW,348,1.0,1.0,61,0.00,,,0.00,334,Wunderground v.1.15,2013-11-05 17:01:00,
2013-11-05 12:02:00,50.9,37.9,30.64,North,355,1.0,1.0,61,0.00,,,0.00,332,Wunderground v.1.15,2013-11-05 17:02:00,
2013-11-05 12:03:00,51.0,38.0,30.64,North,355,1.0,1.0,61,0.00,,,0.00,353,Wunderground v.1.15,2013-11-05 17:03:00,
2013-11-05 12:06:00,51.2,37.8,30.64,South,189,1.0,5.0,60,0.00,,,0.00,304,Wunderground v.1.15,2013-11-05 17:06:00,
2013-11-05 12:08:00,51.1,37.7,30.64,SE,142,2.0,5.0,60,0.00,,,0.00,309,Wunderground v.1.15,2013-11-05 17:08:00,
2013-11-05 12:09:00,51.0,37.6,30.64,SE,141,2.0,5.0,60,0.00,,,0.00,313,Wunderground v.1.15,2013-11-05 17:09:00,
2013-11-05 12:10:00,51.0,37.6,30.64,East,84,2.0,3.0,60,0.00,,,0.00,313,Wunderground v.1.15,2013-11-05 17:10:00,
2013-11-05 12:13:00,51.1,38.1,30.64,SSW,211,2.0,4.0,61,0.00,,,0.00,313,Wunderground v.1.15,2013-11-05 17:13:00,
2013-11-05 12:14:00,51.2,38.2,30.64,SE,130,2.0,5.0,61,0.00,,,0.00,318,Wunderground v.1.15,2013-11-05 17:14:00,
2013-11-05 12:15:00,51.2,38.2,30.64,SE,130,2.0,6.0,61,0.00,,,0.00,323,Wunderground v.1.15,2013-11-05 17:15:00,
2013-11-05 12:16:00,51.3,37.9,30.64,ESE,112,2.0,6.0,60,0.00,,,0.00,341,Wunderground v.1.15,2013-11-05 17:16:00,
2013-11-05 12:20:00,51.5,38.5,30.64,West,261,2.0,2.0,61,0.00,,,0.00,371,Wunderground v.1.15,2013-11-05 17:20:00,
2013-11-05 12:22:00,51.7,38.7,30.64,SE,140,3.0,5.0,61,0.00,,,0.00,396,Wunderground v.1.15,2013-11-05 17:22:00,
2013-11-05 12:23:00,51.7,38.3,30.64,SE,134,3.0,5.0,60,0.00,,,0.00,387,Wunderground v.1.15,2013-11-05 17:23:00,
2013-11-05 12:25:00,51.8,38.8,30.64,ESE,103,3.0,5.0,61,0.00,,,0.00,339,Wunderground v.1.15,2013-11-05 17:25:00,
2013-11-05 12:26:00,51.9,38.9,30.63,ESE,103,3.0,5.0,61,0.00,,,0.00,364,Wunderground v.1.15,2013-11-05 17:26:00,
2013-11-05 12:29:00,52.0,38.1,30.63,NNE,19,3.0,5.0,59,0.00,,,0.00,304,Wunderground v.1.15,2013-11-05 17:29:00,
2013-11-05 12:30:00,52.0,38.1,30.63,WNW,299,3.0,3.0,59,0.00,,,0.00,297,Wunderground v.1.15,2013-11-05 17:30:00,
2013-11-05 12:31:00,52.0,38.5,30.63,WNW,284,3.0,3.0,60,0.00,,,0.00,290,Wunderground v.1.15,2013-11-05 17:31:00,
2013-11-05 12:33:00,52.0,39.0,30.63,WNW,300,2.0,3.0,61,0.00,,,0.00,283,Wunderground v.1.15,2013-11-05 17:33:00,
2013-11-05 12:36:00,52.2,39.1,30.63,NE,53,1.0,3.0,61,0.00,,,0.00,325,Wunderground v.1.15,2013-11-05 17:36:00,
2013-11-05 12:37:00,52.2,38.7,30.63,East,97,1.0,3.0,60,0.00,,,0.00,401,Wunderground v.1.15,2013-11-05 17:37:00,
2013-11-05 12:38:00,52.3,38.8,30.63,SSE,147,1.0,3.0,60,0.00,,,0.00,330,Wunderground v.1.15,2013-11-05 17:38:00,
2013-11-05 12:40:00,52.3,38.4,30.63,WNW,290,1.0,1.0,59,0.00,,,0.00,308,Wunderground v.1.15,2013-11-05 17:40:00,
2013-11-05 12:42:00,52.3,38.8,30.63,SW,236,2.0,2.0,60,0.00,,,0.00,283,Wunderground v.1.15,2013-11-05 17:42:00,
2013-11-05 12:44:00,52.4,38.5,30.63,SE,140,2.0,5.0,59,0.00,,,0.00,272,Wunderground v.1.15,2013-11-05 17:44:00,
2013-11-05 12:45:00,52.4,38.5,30.63,SE,135,3.0,5.0,59,0.00,,,0.00,244,Wunderground v.1.15,2013-11-05 17:45:00,
2013-11-05 12:50:00,52.3,38.0,30.62,ESE,115,4.0,4.0,58,0.00,,,0.00,206,Wunderground v.1.15,2013-11-05 17:50:00,
2013-11-05 12:51:00,52.3,38.0,30.62,SSE,148,4.0,4.0,58,0.00,,,0.00,216,Wunderground v.1.15,2013-11-05 17:51:00,
2013-11-05 12:52:00,52.3,38.4,30.62,ESE,109,4.0,4.0,59,0.00,,,0.00,216,Wunderground v.1.15,2013-11-05 17:52:00,
2013-11-05 12:53:00,52.3,38.4,30.62,SE,124,4.0,4.0,59,0.00,,,0.00,214,Wunderground v.1.15,2013-11-05 17:53:00,
2013-11-05 12:57:00,52.5,38.6,30.61,SE,127,4.0,9.0,59,0.00,,,0.00,227,Wunderground v.1.15,2013-11-05 17:57:00,
2013-11-05 12:58:00,52.5,38.1,30.61,East,100,4.0,9.0,58,0.00,,,0.00,227,Wunderground v.1.15,2013-11-05 17:58:00,
2013-11-05 12:59:00,52.6,38.2,30.62,East,97,4.0,9.0,58,0.00,,,0.00,227,Wunderground v.1.15,2013-11-05 17:59:00,
2013-11-05 13:00:00,52.6,38.2,30.62,SSE,149,4.0,5.0,58,0.00,,,0.00,223,Wunderground v.1.15,2013-11-05 18:00:00,
2013-11-05 13:01:00,52.6,38.2,30.62,SSW,205,4.0,6.0,58,0.00,,,0.00,218,Wunderground v.1.15,2013-11-05 18:01:00,
2013-11-05 13:03:00,52.5,38.1,30.62,SE,128,5.0,8.0,58,0.00,,,0.00,211,Wunderground v.1.15,2013-11-05 18:03:00,
2013-11-05 13:06:00,52.4,38.0,30.62,SE,138,6.0,8.0,58,0.00,,,0.00,209,Wunderground v.1.15,2013-11-05 18:06:00,
2013-11-05 13:07:00,52.4,38.0,30.62,ESE,123,6.0,8.0,58,0.00,,,0.00,211,Wunderground v.1.15,2013-11-05 18:07:00,
2013-11-05 13:08:00,52.4,37.6,30.61,ESE,107,6.0,8.0,57,0.00,,,0.00,209,Wunderground v.1.15,2013-11-05 18:08:00,
2013-11-05 13:09:00,52.4,38.0,30.61,SE,132,6.0,8.0,58,0.00,,,0.00,207,Wunderground v.1.15,2013-11-05 18:09:00,
2013-11-05 13:12:00,52.4,38.0,30.61,SE,136,6.0,7.0,58,0.00,,,0.00,202,Wunderground v.1.15,2013-11-05 18:12:00,
2013-11-05 13:13:00,52.4,38.0,30.61,East,92,5.0,7.0,58,0.00,,,0.00,202,Wunderground v.1.15,2013-11-05 18:13:00,
2013-11-05 13:15:00,52.4,38.0,30.61,SSE,149,5.0,7.0,58,0.00,,,0.00,197,Wunderground v.1.15,2013-11-05 18:15:00,
2013-11-05 13:17:00,52.5,38.1,30.61,ESE,122,4.0,7.0,58,0.00,,,0.00,197,Wunderground v.1.15,2013-11-05 18:17:00,
2013-11-05 13:20:00,52.5,38.1,30.61,SSE,161,4.0,4.0,58,0.00,,,0.00,207,Wunderground v.1.15,2013-11-05 18:20:00,
2013-11-05 13:21:00,52.5,38.1,30.60,SE,137,4.0,4.0,58,0.00,,,0.00,223,Wunderground v.1.15,2013-11-05 18:21:00,
2013-11-05 13:22:00,52.5,38.1,30.60,SE,128,4.0,5.0,58,0.00,,,0.00,234,Wunderground v.1.15,2013-11-05 18:22:00,
2013-11-05 13:27:00,52.6,38.7,30.60,SE,140,4.0,6.0,59,0.00,,,0.00,288,Wunderground v.1.15,2013-11-05 18:27:00,
2013-11-05 13:28:00,52.6,38.7,30.60,SE,128,4.0,6.0,59,0.00,,,0.00,285,Wunderground v.1.15,2013-11-05 18:28:00,
2013-11-05 13:30:00,52.8,38.9,30.60,SSE,165,4.0,4.0,59,0.00,,,0.00,274,Wunderground v.1.15,2013-11-05 18:30:00,
2013-11-05 13:32:00,53.0,38.6,30.60,SE,140,4.0,5.0,58,0.00,,,0.00,336,Wunderground v.1.15,2013-11-05 18:32:00,
2013-11-05 13:33:00,53.1,39.1,30.60,SE,125,4.0,5.0,59,0.00,,,0.00,265,Wunderground v.1.15,2013-11-05 18:33:00,
2013-11-05 13:34:00,53.2,38.8,30.60,SE,125,4.0,5.0,58,0.00,,,0.00,281,Wunderground v.1.15,2013-11-05 18:34:00,
2013-11-05 13:35:00,53.2,38.8,30.60,ESE,113,4.0,9.0,58,0.00,,,0.00,258,Wunderground v.1.15,2013-11-05 18:35:00,
2013-11-05 13:36:00,53.2,38.4,30.60,SE,130,4.0,9.0,57,0.00,,,0.00,258,Wunderground v.1.15,2013-11-05 18:36:00,
2013-11-05 13:40:00,53.2,37.4,30.60,SE,140,5.0,5.0,55,0.00,,,0.00,264,Wunderground v.1.15,2013-11-05 18:40:00,
2013-11-05 13:41:00,53.2,37.9,30.60,ESE,114,5.0,6.0,56,0.00,,,0.00,262,Wunderground v.1.15,2013-11-05 18:41:00,
2013-11-05 13:42:00,53.2,37.4,30.59,SE,146,5.0,6.0,55,0.00,,,0.00,264,Wunderground v.1.15,2013-11-05 18:42:00,
2013-11-05 13:45:00,53.5,38.2,30.59,ESE,119,5.0,6.0,56,0.00,,,0.00,267,Wunderground v.1.15,2013-11-05 18:45:00,
2013-11-05 13:46:00,53.6,37.8,30.59,ESE,121,5.0,6.0,55,0.00,,,0.00,271,Wunderground v.1.15,2013-11-05 18:46:00,
2013-11-05 13:47:00,53.6,37.3,30.59,SSE,150,5.0,7.0,54,0.00,,,0.00,274,Wunderground v.1.15,2013-11-05 18:47:00,
2013-11-05 13:50:00,53.5,37.7,30.59,SSE,152,5.0,5.0,55,0.00,,,0.00,281,Wunderground v.1.15,2013-11-05 18:50:00,
2013-11-05 13:51:00,53.5,37.7,30.59,ESE,106,5.0,5.0,55,0.00,,,0.00,278,Wunderground v.1.15,2013-11-05 18:51:00,
2013-11-05 13:53:00,53.5,37.3,30.59,ESE,113,6.0,7.0,54,0.00,,,0.00,260,Wunderground v.1.15,2013-11-05 18:53:00,
2013-11-05 13:54:00,53.5,37.3,30.59,ESE,113,6.0,7.0,54,0.00,,,0.00,255,Wunderground v.1.15,2013-11-05 18:54:00,
2013-11-05 13:55:00,53.5,37.7,30.59,SE,142,5.0,7.0,55,0.00,,,0.00,253,Wunderground v.1.15,2013-11-05 18:55:00,
2013-11-05 13:57:00,53.5,37.7,30.58,SSE,163,5.0,7.0,55,0.00,,,0.00,250,Wunderground v.1.15,2013-11-05 18:57:00,
2013-11-05 13:59:00,53.6,37.8,30.59,SE,137,4.0,7.0,55,0.00,,,0.00,244,Wunderground v.1.15,2013-11-05 18:59:00,
2013-11-05 14:00:00,53.7,37.9,30.59,SE,134,4.0,4.0,55,0.00,,,0.00,237,Wunderground v.1.15,2013-11-05 19:00:00,
2013-11-05 14:04:00,53.8,37.5,30.59,ESE,113,5.0,13.0,54,0.00,,,0.00,186,Wunderground v.1.15,2013-11-05 19:04:00,
2013-11-05 14:08:00,53.4,37.6,30.59,West,281,6.0,13.0,55,0.00,,,0.00,172,Wunderground v.1.15,2013-11-05 19:08:00,
2013-11-05 14:10:00,53.4,37.6,30.59,SSE,150,6.0,6.0,55,0.00,,,0.00,171,Wunderground v.1.15,2013-11-05 19:10:00,
2013-11-05 14:11:00,53.4,37.6,30.59,SSE,149,6.0,8.0,55,0.00,,,0.00,171,Wunderground v.1.15,2013-11-05 19:11:00,
2013-11-05 14:13:00,53.3,37.5,30.59,East,88,7.0,8.0,55,0.00,,,0.00,167,Wunderground v.1.15,2013-11-05 19:13:00,
2013-11-05 14:15:00,53.3,37.1,30.59,SE,127,7.0,9.0,54,0.00,,,0.00,172,Wunderground v.1.15,2013-11-05 19:15:00,
2013-11-05 14:16:00,53.3,37.1,30.59,ESE,120,7.0,9.0,54,0.00,,,0.00,176,Wunderground v.1.15,2013-11-05 19:16:00,
2013-11-05 14:19:00,53.1,37.3,30.59,SE,128,8.0,9.0,55,0.00,,,0.00,171,Wunderground v.1.15,2013-11-05 19:19:00,
2013-11-05 14:20:00,53.1,37.3,30.59,SSW,198,8.0,8.0,55,0.00,,,0.00,167,Wunderground v.1.15,2013-11-05 19:20:00,
2013-11-05 14:21:00,53.1,37.3,30.59,SE,126,8.0,8.0,55,0.00,,,0.00,165,Wunderground v.1.15,2013-11-05 19:21:00,
2013-11-05 14:22:00,53.1,37.8,30.59,SE,144,8.0,11.0,56,0.00,,,0.00,165,Wunderground v.1.15,2013-11-05 19:22:00,
2013-11-05 14:25:00,53.2,37.4,30.59,SE,132,7.0,11.0,55,0.00,,,0.00,162,Wunderground v.1.15,2013-11-05 19:25:00,
2013-11-05 14:26:00,53.3,37.5,30.59,SE,131,7.0,11.0,55,0.00,,,0.00,162,Wunderground v.1.15,2013-11-05 19:26:00,
2013-11-05 14:27:00,53.3,38.0,30.59,ESE,111,6.0,11.0,56,0.00,,,0.00,162,Wunderground v.1.15,2013-11-05 19:27:00,
2013-11-05 14:29:00,53.4,37.6,30.59,South,175,5.0,11.0,55,0.00,,,0.00,162,Wunderground v.1.15,2013-11-05 19:29:00,
2013-11-05 14:30:00,53.5,37.7,30.59,SE,130,5.0,5.0,55,0.00,,,0.00,160,Wunderground v.1.15,2013-11-05 19:30:00,
2013-11-05 14:31:00,53.5,37.3,30.59,SE,140,5.0,5.0,54,0.00,,,0.00,158,Wunderground v.1.15,2013-11-05 19:31:00,
2013-11-05 14:34:00,53.6,37.8,30.59,South,171,3.0,5.0,55,0.00,,,0.00,149,Wunderground v.1.15,2013-11-05 19:34:00,
2013-11-05 14:36:00,53.7,37.4,30.59,East,82,4.0,5.0,54,0.00,,,0.00,142,Wunderground v.1.15,2013-11-05 19:36:00,
2013-11-05 14:38:00,53.6,37.3,30.59,SE,135,4.0,5.0,54,0.00,,,0.00,139,Wunderground v.1.15,2013-11-05 19:38:00,
2013-11-05 14:40:00,53.6,37.3,30.59,SE,129,4.0,7.0,54,0.00,,,0.00,142,Wunderground v.1.15,2013-11-05 19:40:00,
2013-11-05 14:41:00,53.6,37.3,30.59,ESE,111,4.0,7.0,54,0.00,,,0.00,144,Wunderground v.1.15,2013-11-05 19:41:00,
2013-11-05 14:43:00,53.5,37.3,30.59,SE,131,4.0,7.0,54,0.00,,,0.00,153,Wunderground v.1.15,2013-11-05 19:43:00,
2013-11-05 14:44:00,53.5,37.7,30.59,SE,124,5.0,7.0,55,0.00,,,0.00,156,Wunderground v.1.15,2013-11-05 19:44:00,
2013-11-05 14:45:00,53.5,37.7,30.59,SE,134,5.0,7.0,55,0.00,,,0.00,158,Wunderground v.1.15,2013-11-05 19:45:00,
2013-11-05 14:49:00,53.6,37.8,30.59,SE,135,4.0,7.0,55,0.00,,,0.00,179,Wunderground v.1.15,2013-11-05 19:49:00,
2013-11-05 14:50:00,53.7,37.9,30.59,SE,134,4.0,5.0,55,0.00,,,0.00,186,Wunderground v.1.15,2013-11-05 19:50:00,
2013-11-05 14:51:00,53.7,37.9,30.59,SE,128,4.0,6.0,55,0.00,,,0.00,192,Wunderground v.1.15,2013-11-05 19:51:00,
2013-11-05 14:52:00,53.8,38.0,30.59,SE,145,4.0,6.0,55,0.00,,,0.00,197,Wunderground v.1.15,2013-11-05 19:52:00,
2013-11-05 14:56:00,54.0,38.2,30.59,SE,127,4.0,6.0,55,0.00,,,0.00,204,Wunderground v.1.15,2013-11-05 19:56:00,
2013-11-05 14:57:00,54.0,38.2,30.59,SE,130,4.0,6.0,55,0.00,,,0.00,200,Wunderground v.1.15,2013-11-05 19:57:00,
2013-11-05 14:58:00,54.1,38.7,30.59,SE,136,4.0,6.0,56,0.00,,,0.00,195,Wunderground v.1.15,2013-11-05 19:58:00,
2013-11-05 15:01:00,54.5,39.1,30.58,ENE,76,4.0,4.0,56,0.00,,,0.00,163,Wunderground v.1.15,2013-11-05 20:01:00,
2013-11-05 15:02:00,54.5,38.7,30.58,SSW,194,4.0,5.0,55,0.00,,,0.00,155,Wunderground v.1.15,2013-11-05 20:02:00,
2013-11-05 15:04:00,54.7,38.4,30.59,ESE,113,5.0,7.0,54,0.00,,,0.00,134,Wunderground v.1.15,2013-11-05 20:04:00,
2013-11-05 15:06:00,54.6,38.3,30.59,SE,133,5.0,7.0,54,0.00,,,0.00,107,Wunderground v.1.15,2013-11-05 20:06:00,
2013-11-05 15:08:00,54.6,38.3,30.59,SE,128,5.0,7.0,54,0.00,,,0.00,100,Wunderground v.1.15,2013-11-05 20:08:00,
2013-11-05 15:09:00,54.6,38.3,30.59,ESE,119,5.0,7.0,54,0.00,,,0.00,97,Wunderground v.1.15,2013-11-05 20:09:00,
2013-11-05 15:10:00,54.5,38.2,30.59,East,100,6.0,6.0,54,0.00,,,0.00,97,Wunderground v.1.15,2013-11-05 20:10:00,
2013-11-05 15:14:00,54.5,38.2,30.58,ESE,110,6.0,6.0,54,0.00,,,0.00,102,Wunderground v.1.15,2013-11-05 20:14:00,
2013-11-05 15:15:00,54.5,38.2,30.58,ESE,123,5.0,6.0,54,0.00,,,0.00,104,Wunderground v.1.15,2013-11-05 20:15:00,
2013-11-05 15:16:00,54.5,38.2,30.58,ESE,121,5.0,6.0,54,0.00,,,0.00,102,Wunderground v.1.15,2013-11-05 20:16:00,
2013-11-05 15:17:00,54.5,37.7,30.58,ESE,119,5.0,7.0,53,0.00,,,0.00,100,Wunderground v.1.15,2013-11-05 20:17:00,
2013-11-05 15:19:00,54.4,37.6,30.58,SE,126,5.0,7.0,53,0.00,,,0.00,91,Wunderground v.1.15,2013-11-05 20:19:00,
2013-11-05 15:21:00,54.3,38.0,30.58,SE,133,4.0,5.0,54,0.00,,,0.00,86,Wunderground v.1.15,2013-11-05 20:21:00,
2013-11-05 15:22:00,54.3,38.0,30.58,SE,126,4.0,5.0,54,0.00,,,0.00,84,Wunderground v.1.15,2013-11-05 20:22:00,
2013-11-05 15:24:00,54.2,37.4,30.58,SE,127,4.0,6.0,53,0.00,,,0.00,83,Wunderground v.1.15,2013-11-05 20:24:00,
2013-11-05 15:25:00,54.2,37.4,30.58,SE,145,4.0,6.0,53,0.00,,,0.00,81,Wunderground v.1.15,2013-11-05 20:25:00,
2013-11-05 15:26:00,54.1,37.8,30.58,SE,128,4.0,6.0,54,0.00,,,0.00,79,Wunderground v.1.15,2013-11-05 20:26:00,
2013-11-05 15:27:00,54.1,37.8,30.58,SE,138,4.0,9.0,54,0.00,,,0.00,77,Wunderground v.1.15,2013-11-05 20:27:00,
2013-11-05 15:28:00,54.0,37.2,30.58,SE,137,4.0,9.0,53,0.00,,,0.00,77,Wunderground v.1.15,2013-11-05 20:28:00,
2013-11-05 15:29:00,53.9,37.6,30.58,SE,145,5.0,9.0,54,0.00,,,0.00,77,Wunderground v.1.15,2013-11-05 20:29:00,
2013-11-05 15:31:00,53.8,37.5,30.58,SE,129,5.0,5.0,54,0.00,,,0.00,77,Wunderground v.1.15,2013-11-05 20:31:00,
2013-11-05 15:32:00,53.7,37.9,30.58,East,100,5.0,5.0,55,0.00,,,0.00,77,Wunderground v.1.15,2013-11-05 20:32:00,
2013-11-05 15:33:00,53.7,37.9,30.58,ESE,107,5.0,6.0,55,0.00,,,0.00,79,Wunderground v.1.15,2013-11-05 20:33:00,
2013-11-05 15:36:00,53.7,37.9,30.58,SE,136,6.0,6.0,55,0.00,,,0.00,84,Wunderground v.1.15,2013-11-05 20:36:00,
2013-11-05 15:37:00,53.6,38.3,30.58,SE,140,5.0,6.0,56,0.00,,,0.00,90,Wunderground v.1.15,2013-11-05 20:37:00,
2013-11-05 15:39:00,53.5,38.2,30.58,SE,127,5.0,8.0,56,0.00,,,0.00,88,Wunderground v.1.15,2013-11-05 20:39:00,
2013-11-05 15:40:00,53.5,38.2,30.58,SE,130,5.0,5.0,56,0.00,,,0.00,84,Wunderground v.1.15,2013-11-05 20:40:00,
2013-11-05 15:44:00,53.4,38.5,30.57,SSE,160,5.0,5.0,57,0.00,,,0.00,63,Wunderground v.1.15,2013-11-05 20:44:00,
2013-11-05 15:45:00,53.3,38.4,30.57,SSW,202,5.0,5.0,57,0.00,,,0.00,60,Wunderground v.1.15,2013-11-05 20:45:00,
2013-11-05 15:46:00,53.3,38.4,30.57,SSE,148,5.0,5.0,57,0.00,,,0.00,58,Wunderground v.1.15,2013-11-05 20:46:00,
2013-11-05 15:47:00,53.3,38.9,30.57,SE,128,5.0,5.0,58,0.00,,,0.00,56,Wunderground v.1.15,2013-11-05 20:47:00,
2013-11-05 15:48:00,53.3,38.4,30.57,SE,145,5.0,5.0,57,0.00,,,0.00,56,Wunderground v.1.15,2013-11-05 20:48:00,
2013-11-05 15:51:00,53.2,38.8,30.57,ESE,122,4.0,4.0,58,0.00,,,0.00,49,Wunderground v.1.15,2013-11-05 20:51:00,
2013-11-05 15:52:00,53.2,38.4,30.58,SE,134,4.0,4.0,57,0.00,,,0.00,47,Wunderground v.1.15,2013-11-05 20:52:00,
2013-11-05 15:53:00,53.2,38.8,30.58,SE,132,4.0,5.0,58,0.00,,,0.00,46,Wunderground v.1.15,2013-11-05 20:53:00,
2013-11-05 15:55:00,53.2,38.8,30.58,SE,145,4.0,5.0,58,0.00,,,0.00,46,Wunderground v.1.15,2013-11-05 20:55:00,
2013-11-05 15:58:00,53.1,38.7,30.58,ESE,118,5.0,6.0,58,0.00,,,0.00,47,Wunderground v.1.15,2013-11-05 20:58:00,
2013-11-05 16:00:00,53.0,38.6,30.58,SE,128,5.0,5.0,58,0.00,,,0.00,46,Wunderground v.1.15,2013-11-05 21:00:00,
2013-11-05 16:04:00,52.9,39.0,30.58,SE,142,5.0,5.0,59,0.00,,,0.00,46,Wunderground v.1.15,2013-11-05 21:04:00,
2013-11-05 16:05:00,52.9,39.0,30.59,SE,126,4.0,6.0,59,0.00,,,0.00,49,Wunderground v.1.15,2013-11-05 21:05:00,
2013-11-05 16:06:00,52.9,39.0,30.59,ESE,121,4.0,6.0,59,0.00,,,0.00,51,Wunderground v.1.15,2013-11-05 21:06:00,
2013-11-05 16:09:00,52.8,38.9,30.58,SE,135,4.0,6.0,59,0.00,,,0.00,62,Wunderground v.1.15,2013-11-05 21:09:00,
2013-11-05 16:10:00,52.9,39.0,30.58,SE,128,4.0,6.0,59,0.00,,,0.00,67,Wunderground v.1.15,2013-11-05 21:10:00,
2013-11-05 16:12:00,52.9,39.0,30.58,SE,146,4.0,6.0,59,0.00,,,0.00,67,Wunderground v.1.15,2013-11-05 21:12:00,
2013-11-05 16:13:00,52.9,39.0,30.58,ESE,119,4.0,8.0,59,0.00,,,0.00,63,Wunderground v.1.15,2013-11-05 21:13:00,
2013-11-05 16:14:00,52.9,39.0,30.58,SE,138,4.0,8.0,59,0.00,,,0.00,62,Wunderground v.1.15,2013-11-05 21:14:00,
2013-11-05 16:15:00,52.9,39.0,30.58,SE,138,5.0,8.0,59,0.00,,,0.00,58,Wunderground v.1.15,2013-11-05 21:15:00,
2013-11-05 16:17:00,52.9,39.0,30.58,SE,134,5.0,8.0,59,0.00,,,0.00,49,Wunderground v.1.15,2013-11-05 21:17:00,
2013-11-05 16:20:00,52.8,38.4,30.57,SE,139,5.0,7.0,58,0.00,,,0.00,42,Wunderground v.1.15,2013-11-05 21:20:00,
2013-11-05 16:21:00,52.8,38.4,30.57,SSE,163,5.0,7.0,58,0.00,,,0.00,40,Wunderground v.1.15,2013-11-05 21:21:00,
2013-11-05 16:22:00,52.8,38.9,30.57,South,178,5.0,7.0,59,0.00,,,0.00,39,Wunderground v.1.15,2013-11-05 21:22:00,
2013-11-05 16:23:00,52.8,38.9,30.57,SSE,160,5.0,7.0,59,0.00,,,0.00,39,Wunderground v.1.15,2013-11-05 21:23:00,
2013-11-05 16:24:00,52.8,38.9,30.57,SE,132,5.0,7.0,59,0.00,,,0.00,37,Wunderground v.1.15,2013-11-05 21:24:00,
2013-11-05 16:26:00,52.8,38.4,30.57,SSE,151,5.0,7.0,58,0.00,,,0.00,33,Wunderground v.1.15,2013-11-05 21:26:00,
2013-11-05 16:28:00,52.8,38.4,30.57,SE,124,5.0,7.0,58,0.00,,,0.00,28,Wunderground v.1.15,2013-11-05 21:28:00,
2013-11-05 16:29:00,52.7,38.3,30.57,SE,143,5.0,7.0,58,0.00,,,0.00,26,Wunderground v.1.15,2013-11-05 21:29:00,
2013-11-05 16:31:00,52.7,38.3,30.57,SSE,148,5.0,5.0,58,0.00,,,0.00,26,Wunderground v.1.15,2013-11-05 21:31:00,
2013-11-05 16:34:00,52.6,38.7,30.57,East,86,4.0,5.0,59,0.00,,,0.00,32,Wunderground v.1.15,2013-11-05 21:34:00,
2013-11-05 16:35:00,52.6,38.7,30.57,ESE,102,4.0,5.0,59,0.00,,,0.00,32,Wunderground v.1.15,2013-11-05 21:35:00,
2013-11-05 16:38:00,52.6,38.2,30.57,SSE,156,4.0,5.0,58,0.00,,,0.00,28,Wunderground v.1.15,2013-11-05 21:38:00,
2013-11-05 16:39:00,52.6,38.2,30.57,SE,131,4.0,5.0,58,0.00,,,0.00,26,Wunderground v.1.15,2013-11-05 21:39:00,
2013-11-05 16:40:00,52.6,38.7,30.57,SE,130,4.0,4.0,59,0.00,,,0.00,25,Wunderground v.1.15,2013-11-05 21:40:00,
2013-11-05 16:41:00,52.6,38.7,30.57,SE,126,4.0,4.0,59,0.00,,,0.00,21,Wunderground v.1.15,2013-11-05 21:41:00,
2013-11-05 16:44:00,52.6,38.7,30.57,SSE,156,4.0,5.0,59,0.00,,,0.00,18,Wunderground v.1.15,2013-11-05 21:44:00,
2013-11-05 16:46:00,52.5,38.6,30.57,SE,133,4.0,6.0,59,0.00,,,0.00,16,Wunderground v.1.15,2013-11-05 21:46:00,
2013-11-05 16:48:00,52.4,38.5,30.57,SE,138,4.0,6.0,59,0.00,,,0.00,12,Wunderground v.1.15,2013-11-05 21:48:00,
2013-11-05 16:50:00,52.4,38.5,30.57,ESE,123,4.0,4.0,59,0.00,,,0.00,11,Wunderground v.1.15,2013-11-05 21:50:00,
2013-11-05 16:51:00,52.4,38.5,30.57,SE,131,4.0,4.0,59,0.00,,,0.00,7,Wunderground v.1.15,2013-11-05 21:51:00,
2013-11-05 16:52:00,52.3,38.4,30.57,SE,140,4.0,4.0,59,0.00,,,0.00,7,Wunderground v.1.15,2013-11-05 21:52:00,
2013-11-05 16:53:00,52.3,38.8,30.57,SSE,153,4.0,4.0,60,0.00,,,0.00,7,Wunderground v.1.15,2013-11-05 21:53:00,
2013-11-05 16:55:00,52.3,38.8,30.56,SE,128,4.0,6.0,60,0.00,,,0.00,5,Wunderground v.1.15,2013-11-05 21:55:00,
2013-11-05 16:56:00,52.3,38.8,30.57,SE,141,4.0,6.0,60,0.00,,,0.00,5,Wunderground v.1.15,2013-11-05 21:56:00,
2013-11-05 16:57:00,52.2,38.7,30.57,ESE,122,4.0,6.0,60,0.00,,,0.00,5,Wunderground v.1.15,2013-11-05 21:57:00,
2013-11-05 16:59:00,52.1,38.6,30.57,SSE,148,3.0,6.0,60,0.00,,,0.00,0,Wunderground v.1.15,2013-11-05 21:59:00,
2013-11-05 17:01:00,52.1,38.6,30.57,SSE,154,3.0,3.0,60,0.00,,,0.00,0,Wunderground v.1.15,2013-11-05 22:01:00,
2013-11-05 17:04:00,51.9,38.4,30.57,SSE,165,2.0,3.0,60,0.00,,,0.00,0,Wunderground v.1.15,2013-11-05 22:04:00,
2013-11-05 17:05:00,51.8,38.8,30.57,SSE,165,2.0,3.0,61,0.00,,,0.00,0,Wunderground v.1.15,2013-11-05 22:05:00,
2013-11-05 17:06:00,51.8,38.8,30.57,SSE,165,2.0,3.0,61,0.00,,,0.00,0,Wunderground v.1.15,2013-11-05 22:06:00,
2013-11-05 17:07:00,51.7,38.7,30.56,SSE,165,1.0,3.0,61,0.00,,,0.00,0,Wunderground v.1.15,2013-11-05 22:07:00,
2013-11-05 17:08:00,51.7,38.7,30.56,SSE,165,1.0,3.0,61,0.00,,,0.00,0,Wunderground v.1.15,2013-11-05 22:08:00,
2013-11-05 17:11:00,51.6,38.6,30.57,SSE,165,1.0,1.0,61,0.00,,,0.00,0,Wunderground v.1.15,2013-11-05 22:11:00,
2013-11-05 17:12:00,51.5,38.5,30.57,SSE,165,1.0,1.0,61,0.00,,,0.00,0,Wunderground v.1.15,2013-11-05 22:12:00,
2013-11-05 17:14:00,51.4,38.4,30.57,SSE,165,1.0,2.0,61,0.00,,,0.00,0,Wunderground v.1.15,2013-11-05 22:14:00,
2013-11-05 17:16:00,51.3,38.7,30.57,SSE,159,1.0,2.0,62,0.00,,,0.00,0,Wunderground v.1.15,2013-11-05 22:16:00,
2013-11-05 17:19:00,51.2,38.6,30.57,SSE,155,1.0,2.0,62,0.00,,,0.00,0,Wunderground v.1.15,2013-11-05 22:19:00,
2013-11-05 17:22:00,51.1,38.5,30.57,SSE,155,1.0,1.0,62,0.00,,,0.00,0,Wunderground v.1.15,2013-11-05 22:22:00,
2013-11-05 17:23:00,51.1,38.5,30.57,SSE,156,1.0,1.0,62,0.00,,,0.00,0,Wunderground v.1.15,2013-11-05 22:23:00,
2013-11-05 17:24:00,51.0,38.4,30.57,SSE,156,1.0,1.0,62,0.00,,,0.00,0,Wunderground v.1.15,2013-11-05 22:24:00,
2013-11-05 17:25:00,51.0,38.4,30.57,SSE,156,1.0,1.0,62,0.00,,,0.00,0,Wunderground v.1.15,2013-11-05 22:25:00,
2013-11-05 17:28:00,50.9,38.7,30.57,SSE,156,1.0,1.0,63,0.00,,,0.00,0,Wunderground v.1.15,2013-11-05 22:28:00,
2013-11-05 17:30:00,50.8,38.7,30.58,SSE,156,1.0,1.0,63,0.00,,,0.00,0,Wunderground v.1.15,2013-11-05 22:30:00,
2013-11-05 17:31:00,50.8,38.7,30.58,SSE,156,1.0,1.0,63,0.00,,,0.00,0,Wunderground v.1.15,2013-11-05 22:31:00,
2013-11-05 17:33:00,50.8,38.7,30.58,SSE,156,0.0,1.0,63,0.00,,,0.00,0,Wunderground v.1.15,2013-11-05 22:33:00,
2013-11-05 17:34:00,50.7,38.6,30.58,SSE,156,0.0,1.0,63,0.00,,,0.00,0,Wunderground v.1.15,2013-11-05 22:34:00,
2013-11-05 17:35:00,50.7,38.6,30.58,SSE,156,0.0,1.0,63,0.00,,,0.00,0,Wunderground v.1.15,2013-11-05 22:35:00,
2013-11-05 17:39:00,50.6,38.9,30.58,SSE,156,0.0,1.0,64,0.00,,,0.00,0,Wunderground v.1.15,2013-11-05 22:39:00,
2013-11-05 17:40:00,50.6,38.5,30.58,SSE,156,0.0,0.0,63,0.00,,,0.00,0,Wunderground v.1.15,2013-11-05 22:40:00,
2013-11-05 17:41:00,50.6,38.9,30.58,SSE,156,0.0,0.0,64,0.00,,,0.00,0,Wunderground v.1.15,2013-11-05 22:41:00,
2013-11-05 17:43:00,50.5,38.8,30.59,SSE,156,0.0,0.0,64,0.00,,,0.00,0,Wunderground v.1.15,2013-11-05 22:43:00,
2013-11-05 17:44:00,50.4,38.7,30.59,SSE,156,0.0,0.0,64,0.00,,,0.00,0,Wunderground v.1.15,2013-11-05 22:44:00,
2013-11-05 17:47:00,50.3,39.0,30.59,SSE,156,0.0,0.0,65,0.00,,,0.00,0,Wunderground v.1.15,2013-11-05 22:47:00,
2013-11-05 17:48:00,50.3,39.0,30.59,SSE,156,0.0,0.0,65,0.00,,,0.00,0,Wunderground v.1.15,2013-11-05 22:48:00,
2013-11-05 17:51:00,50.1,38.8,30.59,SSE,156,0.0,0.0,65,0.00,,,0.00,0,Wunderground v.1.15,2013-11-05 22:51:00,
2013-11-05 17:52:00,50.1,38.8,30.59,SSE,156,0.0,0.0,65,0.00,,,0.00,0,Wunderground v.1.15,2013-11-05 22:52:00,
2013-11-05 17:54:00,50.0,39.1,30.59,SSE,156,0.0,1.0,66,0.00,,,0.00,0,Wunderground v.1.15,2013-11-05 22:54:00,
2013-11-05 17:55:00,50.0,39.1,30.59,SSE,156,0.0,1.0,66,0.00,,,0.00,0,Wunderground v.1.15,2013-11-05 22:55:00,
2013-11-05 17:56:00,49.9,39.0,30.59,SSE,156,0.0,1.0,66,0.00,,,0.00,0,Wunderground v.1.15,2013-11-05 22:56:00,
2013-11-05 17:58:00,49.9,39.0,30.58,SSE,156,0.0,1.0,66,0.00,,,0.00,0,Wunderground v.1.15,2013-11-05 22:58:00,
2013-11-05 18:01:00,49.8,39.3,30.59,SSE,156,0.0,0.0,67,0.00,,,0.00,0,Wunderground v.1.15,2013-11-05 23:01:00,
2013-11-05 18:02:00,49.7,39.2,30.59,SSE,156,0.0,0.0,67,0.00,,,0.00,0,Wunderground v.1.15,2013-11-05 23:02:00,
2013-11-05 18:04:00,49.7,39.2,30.59,SSE,156,0.0,0.0,67,0.00,,,0.00,0,Wunderground v.1.15,2013-11-05 23:04:00,
2013-11-05 18:07:00,49.6,39.1,30.59,SSE,156,0.0,0.0,67,0.00,,,0.00,0,Wunderground v.1.15,2013-11-05 23:07:00,
2013-11-05 18:08:00,49.6,39.1,30.59,SSE,156,0.0,0.0,67,0.00,,,0.00,0,Wunderground v.1.15,2013-11-05 23:08:00,
2013-11-05 18:10:00,49.5,38.6,30.59,SSE,156,0.0,0.0,66,0.00,,,0.00,0,Wunderground v.1.15,2013-11-05 23:10:00,
2013-11-05 18:11:00,49.5,39.0,30.59,SSE,156,0.0,0.0,67,0.00,,,0.00,0,Wunderground v.1.15,2013-11-05 23:11:00,
2013-11-05 18:14:00,49.4,38.9,30.60,SSE,156,0.0,0.0,67,0.00,,,0.00,0,Wunderground v.1.15,2013-11-05 23:14:00,
2013-11-05 18:15:00,49.4,38.9,30.60,SSE,156,0.0,0.0,67,0.00,,,0.00,0,Wunderground v.1.15,2013-11-05 23:15:00,
2013-11-05 18:16:00,49.4,38.9,30.60,SSE,156,0.0,0.0,67,0.00,,,0.00,0,Wunderground v.1.15,2013-11-05 23:16:00,
2013-11-05 18:18:00,49.4,39.3,30.60,SSE,156,0.0,0.0,68,0.00,,,0.00,0,Wunderground v.1.15,2013-11-05 23:18:00,
2013-11-05 18:20:00,49.4,39.3,30.60,SSE,156,0.0,0.0,68,0.00,,,0.00,0,Wunderground v.1.15,2013-11-05 23:20:00,
2013-11-05 18:21:00,49.4,39.3,30.60,SSE,156,0.0,0.0,68,0.00,,,0.00,0,Wunderground v.1.15,2013-11-05 23:21:00,
2013-11-05 18:22:00,49.4,39.3,30.59,SSE,156,0.0,0.0,68,0.00,,,0.00,0,Wunderground v.1.15,2013-11-05 23:22:00,
2013-11-05 18:25:00,49.4,39.3,30.59,SSE,156,0.0,0.0,68,0.00,,,0.00,0,Wunderground v.1.15,2013-11-05 23:25:00,
2013-11-05 18:27:00,49.4,39.3,30.59,SSE,156,0.0,1.0,68,0.00,,,0.00,0,Wunderground v.1.15,2013-11-05 23:27:00,
2013-11-05 18:28:00,49.4,39.3,30.59,SSE,156,0.0,1.0,68,0.00,,,0.00,0,Wunderground v.1.15,2013-11-05 23:28:00,
2013-11-05 18:29:00,49.4,39.3,30.59,SSE,156,0.0,1.0,68,0.00,,,0.00,0,Wunderground v.1.15,2013-11-05 23:29:00,
2013-11-05 18:32:00,49.4,39.3,30.59,SSE,156,0.0,0.0,68,0.00,,,0.00,0,Wunderground v.1.15,2013-11-05 23:32:00,
2013-11-05 18:35:00,49.3,39.2,30.59,SSE,156,1.0,2.0,68,0.00,,,0.00,0,Wunderground v.1.15,2013-11-05 23:35:00,
2013-11-05 18:36:00,49.2,39.1,30.59,SSE,156,1.0,2.0,68,0.00,,,0.00,0,Wunderground v.1.15,2013-11-05 23:36:00,
2013-11-05 18:37:00,49.2,39.1,30.59,SSE,156,1.0,2.0,68,0.00,,,0.00,0,Wunderground v.1.15,2013-11-05 23:37:00,
2013-11-05 18:40:00,49.1,38.6,30.59,SSE,156,1.0,1.0,67,0.00,,,0.00,0,Wunderground v.1.15,2013-11-05 23:40:00,
2013-11-05 18:41:00,49.2,38.7,30.59,SSE,156,1.0,1.0,67,0.00,,,0.00,0,Wunderground v.1.15,2013-11-05 23:41:00,
2013-11-05 18:42:00,49.1,38.6,30.59,SSE,156,1.0,1.0,67,0.00,,,0.00,0,Wunderground v.1.15,2013-11-05 23:42:00,
2013-11-05 18:43:00,49.1,38.6,30.59,SSE,156,1.0,1.0,67,0.00,,,0.00,0,Wunderground v.1.15,2013-11-05 23:43:00,
2013-11-05 18:45:00,49.1,38.6,30.59,SSE,156,1.0,1.0,67,0.00,,,0.00,0,Wunderground v.1.15,2013-11-05 23:45:00,
2013-11-05 18:48:00,49.1,38.6,30.59,SSE,159,1.0,2.0,67,0.00,,,0.00,0,Wunderground v.1.15,2013-11-05 23:48:00,
2013-11-05 18:50:00,49.1,38.6,30.59,SSE,162,1.0,2.0,67,0.00,,,0.00,0,Wunderground v.1.15,2013-11-05 23:50:00,
2013-11-05 18:51:00,49.1,38.6,30.59,South,171,1.0,2.0,67,0.00,,,0.00,0,Wunderground v.1.15,2013-11-05 23:51:00,
2013-11-05 18:52:00,49.1,38.6,30.59,South,173,1.0,2.0,67,0.00,,,0.00,0,Wunderground v.1.15,2013-11-05 23:52:00,
2013-11-05 18:53:00,49.1,38.6,30.59,South,173,1.0,2.0,67,0.00,,,0.00,0,Wunderground v.1.15,2013-11-05 23:53:00,
2013-11-05 18:54:00,49.1,38.6,30.59,South,173,1.0,2.0,67,0.00,,,0.00,0,Wunderground v.1.15,2013-11-05 23:54:00,
2013-11-05 18:56:00,49.2,38.7,30.59,South,173,1.0,2.0,67,0.00,,,0.00,0,Wunderground v.1.15,2013-11-05 23:56:00,
2013-11-05 18:58:00,49.2,38.7,30.59,South,173,1.0,2.0,67,0.00,,,0.00,0,Wunderground v.1.15,2013-11-05 23:58:00,
2013-11-05 19:02:00,49.3,38.8,30.59,South,173,1.0,1.0,67,0.00,,,0.00,0,Wunderground v.1.15,2013-11-06 00:02:00,
2013-11-05 19:03:00,49.3,38.8,30.59,South,173,1.0,1.0,67,0.00,,,0.00,0,Wunderground v.1.15,2013-11-06 00:03:00,
2013-11-05 19:04:00,49.3,38.8,30.59,South,173,0.0,1.0,67,0.00,,,0.00,0,Wunderground v.1.15,2013-11-06 00:04:00,
2013-11-05 19:06:00,49.3,38.8,30.59,South,173,0.0,1.0,67,0.00,,,0.00,0,Wunderground v.1.15,2013-11-06 00:06:00,
2013-11-05 19:07:00,49.3,38.8,30.58,South,173,0.0,1.0,67,0.00,,,0.00,0,Wunderground v.1.15,2013-11-06 00:07:00,
2013-11-05 19:08:00,49.3,38.8,30.58,South,173,0.0,1.0,67,0.00,,,0.00,0,Wunderground v.1.15,2013-11-06 00:08:00,
2013-11-05 19:11:00,49.3,38.4,30.58,South,173,0.0,2.0,66,0.00,,,0.00,0,Wunderground v.1.15,2013-11-06 00:11:00,
2013-11-05 19:15:00,49.3,38.8,30.58,South,186,1.0,3.0,67,0.00,,,0.00,0,Wunderground v.1.15,2013-11-06 00:15:00,
2013-11-05 19:16:00,49.2,38.7,30.58,South,186,1.0,3.0,67,0.00,,,0.00,0,Wunderground v.1.15,2013-11-06 00:16:00,
2013-11-05 19:17:00,49.2,38.7,30.58,South,186,1.0,3.0,67,0.00,,,0.00,0,Wunderground v.1.15,2013-11-06 00:17:00,
2013-11-05 19:19:00,49.1,38.6,30.59,South,186,1.0,3.0,67,0.00,,,0.00,0,Wunderground v.1.15,2013-11-06 00:19:00,
2013-11-05 19:22:00,49.0,38.5,30.58,South,186,1.0,1.0,67,0.00,,,0.00,0,Wunderground v.1.15,2013-11-06 00:22:00,
2013-11-05 19:24:00,49.0,38.5,30.58,South,186,1.0,1.0,67,0.00,,,0.00,0,Wunderground v.1.15,2013-11-06 00:24:00,
2013-11-05 19:25:00,48.9,38.4,30.58,South,186,1.0,1.0,67,0.00,,,0.00,0,Wunderground v.1.15,2013-11-06 00:25:00,
2013-11-05 19:26:00,48.9,38.8,30.58,South,186,1.0,1.0,68,0.00,,,0.00,0,Wunderground v.1.15,2013-11-06 00:26:00,
2013-11-05 19:27:00,48.9,38.8,30.58,South,186,1.0,1.0,68,0.00,,,0.00,0,Wunderground v.1.15,2013-11-06 00:27:00,
2013-11-05 19:30:00,48.9,38.8,30.58,South,186,1.0,1.0,68,0.00,,,0.00,0,Wunderground v.1.15,2013-11-06 00:30:00,
2013-11-05 19:31:00,48.9,38.8,30.58,South,186,1.0,1.0,68,0.00,,,0.00,0,Wunderground v.1.15,2013-11-06 00:31:00,
2013-11-05 19:34:00,49.0,38.9,30.58,South,186,1.0,1.0,68,0.00,,,0.00,0,Wunderground v.1.15,2013-11-06 00:34:00,
2013-11-05 19:35:00,49.0,38.9,30.58,South,186,1.0,1.0,68,0.00,,,0.00,0,Wunderground v.1.15,2013-11-06 00:35:00,
2013-11-05 19:37:00,49.1,39.0,30.58,South,186,1.0,2.0,68,0.00,,,0.00,0,Wunderground v.1.15,2013-11-06 00:37:00,
2013-11-05 19:41:00,49.1,39.0,30.58,South,186,1.0,2.0,68,0.00,,,0.00,0,Wunderground v.1.15,2013-11-06 00:41:00,
2013-11-05 19:43:00,49.1,39.0,30.58,South,186,1.0,2.0,68,0.00,,,0.00,0,Wunderground v.1.15,2013-11-06 00:43:00,
2013-11-05 19:44:00,49.1,39.0,30.58,South,186,1.0,2.0,68,0.00,,,0.00,0,Wunderground v.1.15,2013-11-06 00:44:00,
2013-11-05 19:49:00,48.7,38.6,30.58,South,186,1.0,2.0,68,0.00,,,0.00,0,Wunderground v.1.15,2013-11-06 00:49:00,
2013-11-05 19:52:00,48.5,38.8,30.58,South,186,1.0,2.0,69,0.00,,,0.00,0,Wunderground v.1.15,2013-11-06 00:52:00,
2013-11-05 19:53:00,48.4,39.1,30.58,South,190,1.0,4.0,70,0.00,,,0.00,0,Wunderground v.1.15,2013-11-06 00:53:00,
2013-11-05 19:54:00,48.4,39.1,30.57,SSW,202,2.0,4.0,70,0.00,,,0.00,0,Wunderground v.1.15,2013-11-06 00:54:00,
2013-11-05 19:56:00,48.3,39.0,30.58,SSW,211,2.0,4.0,70,0.00,,,0.00,0,Wunderground v.1.15,2013-11-06 00:56:00,
2013-11-05 19:59:00,48.3,39.0,30.57,SSW,211,2.0,4.0,70,0.00,,,0.00,0,Wunderground v.1.15,2013-11-06 00:59:00,
2013-11-05 20:01:00,48.4,39.1,30.57,South,187,2.0,2.0,70,0.00,,,0.00,0,Wunderground v.1.15,2013-11-06 01:01:00,
2013-11-05 20:02:00,48.4,39.1,30.57,SSW,192,2.0,2.0,70,0.00,,,0.00,0,Wunderground v.1.15,2013-11-06 01:02:00,
2013-11-05 20:03:00,48.4,39.1,30.57,SSW,192,2.0,2.0,70,0.00,,,0.00,0,Wunderground v.1.15,2013-11-06 01:03:00,
2013-11-05 20:07:00,48.5,39.2,30.57,South,190,2.0,2.0,70,0.00,,,0.00,0,Wunderground v.1.15,2013-11-06 01:07:00,
2013-11-05 20:08:00,48.5,39.2,30.57,SSW,195,2.0,2.0,70,0.00,,,0.00,0,Wunderground v.1.15,2013-11-06 01:08:00,
2013-11-05 20:09:00,48.5,39.2,30.57,South,171,2.0,2.0,70,0.00,,,0.00,0,Wunderground v.1.15,2013-11-06 01:09:00,
2013-11-05 20:13:00,48.6,39.6,30.56,SSW,198,3.0,6.0,71,0.00,,,0.00,0,Wunderground v.1.15,2013-11-06 01:13:00,
2013-11-05 20:16:00,48.5,39.2,30.56,SSW,207,3.0,6.0,70,0.00,,,0.00,0,Wunderground v.1.15,2013-11-06 01:16:00,
2013-11-05 20:17:00,48.5,39.5,30.56,SSW,203,3.0,6.0,71,0.00,,,0.00,0,Wunderground v.1.15,2013-11-06 01:17:00,
2013-11-05 20:18:00,48.5,39.5,30.56,SSW,205,3.0,6.0,71,0.00,,,0.00,0,Wunderground v.1.15,2013-11-06 01:18:00,
2013-11-05 20:21:00,48.5,39.5,30.56,SSW,208,4.0,4.0,71,0.00,,,0.00,0,Wunderground v.1.15,2013-11-06 01:21:00,
2013-11-05 20:22:00,48.5,39.5,30.55,SSW,195,4.0,4.0,71,0.00,,,0.00,0,Wunderground v.1.15,2013-11-06 01:22:00,
2013-11-05 20:25:00,48.5,39.5,30.56,SW,214,3.0,5.0,71,0.00,,,0.00,0,Wunderground v.1.15,2013-11-06 01:25:00,
2013-11-05 20:26:00,48.5,39.5,30.56,SW,219,3.0,5.0,71,0.00,,,0.00,0,Wunderground v.1.15,2013-11-06 01:26:00,
2013-11-05 20:27:00,48.5,39.5,30.56,SW,219,3.0,5.0,71,0.00,,,0.00,0,Wunderground v.1.15,2013-11-06 01:27:00,
2013-11-05 20:30:00,48.6,39.6,30.56,SW,231,3.0,3.0,71,0.00,,,0.00,0,Wunderground v.1.15,2013-11-06 01:30:00,
2013-11-05 20:32:00,48.6,39.6,30.56,SSW,200,2.0,4.0,71,0.00,,,0.00,0,Wunderground v.1.15,2013-11-06 01:32:00,
2013-11-05 20:33:00,48.6,39.6,30.56,SSW,203,2.0,4.0,71,0.00,,,0.00,0,Wunderground v.1.15,2013-11-06 01:33:00,
2013-11-05 20:34:00,48.7,39.7,30.56,SW,229,2.0,4.0,71,0.00,,,0.00,0,Wunderground v.1.15,2013-11-06 01:34:00,
2013-11-05 20:37:00,48.7,39.7,30.56,South,183,2.0,4.0,71,0.00,,,0.00,0,Wunderground v.1.15,2013-11-06 01:37:00,
2013-11-05 20:38:00,48.7,39.7,30.56,South,183,2.0,4.0,71,0.00,,,0.00,0,Wunderground v.1.15,2013-11-06 01:38:00,
2013-11-05 20:42:00,48.7,39.7,30.55,SSW,196,2.0,4.0,71,0.00,,,0.00,0,Wunderground v.1.15,2013-11-06 01:42:00,
2013-11-05 20:46:00,48.7,40.1,30.55,South,181,3.0,5.0,72,0.00,,,0.00,0,Wunderground v.1.15,2013-11-06 01:46:00,
2013-11-05 20:47:00,48.7,39.7,30.55,SSW,196,3.0,5.0,71,0.00,,,0.00,0,Wunderground v.1.15,2013-11-06 01:47:00,
2013-11-05 20:50:00,48.6,40.0,30.54,South,184,3.0,3.0,72,0.00,,,0.00,0,Wunderground v.1.15,2013-11-06 01:50:00,
2013-11-05 20:51:00,48.6,40.0,30.54,SSW,202,3.0,4.0,72,0.00,,,0.00,0,Wunderground v.1.15,2013-11-06 01:51:00,
2013-11-05 20:54:00,48.5,39.9,30.55,SSW,197,2.0,4.0,72,0.00,,,0.00,0,Wunderground v.1.15,2013-11-06 01:54:00,
2013-11-05 20:56:00,48.5,39.9,30.55,SW,215,2.0,4.0,72,0.00,,,0.00,0,Wunderground v.1.15,2013-11-06 01:56:00,
2013-11-05 20:57:00,48.5,39.9,30.55,SW,215,2.0,4.0,72,0.00,,,0.00,0,Wunderground v.1.15,2013-11-06 01:57:00,
2013-11-05 20:59:00,48.5,39.9,30.55,SW,215,2.0,4.0,72,0.00,,,0.00,0,Wunderground v.1.15,2013-11-06 01:59:00,
2013-11-05 21:00:00,48.5,39.9,30.56,SW,215,2.0,2.0,72,0.00,,,0.00,0,Wunderground v.1.15,2013-11-06 02:00:00,
2013-11-05 21:01:00,48.6,40.0,30.56,SW,215,2.0,2.0,72,0.00,,,0.00,0,Wunderground v.1.15,2013-11-06 02:01:00,
2013-11-05 21:02:00,48.6,40.0,30.55,SW,215,1.0,2.0,72,0.00,,,0.00,0,Wunderground v.1.15,2013-11-06 02:02:00,
2013-11-05 21:04:00,48.6,40.0,30.55,SW,215,1.0,2.0,72,0.00,,,0.00,0,Wunderground v.1.15,2013-11-06 02:04:00,
2013-11-05 21:05:00,48.6,40.0,30.55,SW,215,1.0,2.0,72,0.00,,,0.00,0,Wunderground v.1.15,2013-11-06 02:05:00,
2013-11-05 21:07:00,48.6,40.0,30.55,SW,215,1.0,2.0,72,0.00,,,0.00,0,Wunderground v.1.15,2013-11-06 02:07:00,
2013-11-05 21:09:00,48.6,40.0,30.55,SW,215,0.0,2.0,72,0.00,,,0.00,0,Wunderground v.1.15,2013-11-06 02:09:00,
2013-11-05 21:10:00,48.6,40.0,30.55,SW,215,0.0,0.0,72,0.00,,,0.00,0,Wunderground v.1.15,2013-11-06 02:10:00,
2013-11-05 21:11:00,48.5,39.9,30.55,SW,215,0.0,0.0,72,0.00,,,0.00,0,Wunderground v.1.15,2013-11-06 02:11:00,
2013-11-05 21:13:00,48.5,40.2,30.55,SW,215,0.0,0.0,73,0.00,,,0.00,0,Wunderground v.1.15,2013-11-06 02:13:00,
2013-11-05 21:15:00,48.4,40.1,30.55,SW,215,0.0,0.0,73,0.00,,,0.00,0,Wunderground v.1.15,2013-11-06 02:15:00,
2013-11-05 21:18:00,48.3,40.0,30.56,WNW,285,0.0,2.0,73,0.00,,,0.00,0,Wunderground v.1.15,2013-11-06 02:18:00,
2013-11-05 21:19:00,48.3,40.0,30.55,NW,325,0.0,2.0,73,0.00,,,0.00,0,Wunderground v.1.15,2013-11-06 02:19:00,
2013-11-05 21:20:00,48.3,40.0,30.55,NW,325,0.0,1.0,73,0.00,,,0.00,0,Wunderground v.1.15,2013-11-06 02:20:00,
2013-11-05 21:22:00,48.3,40.0,30.55,NW,325,0.0,1.0,73,0.00,,,0.00,0,Wunderground v.1.15,2013-11-06 02:22:00,
2013-11-05 21:24:00,48.3,40.0,30.55,NW,307,1.0,1.0,73,0.00,,,0.00,0,Wunderground v.1.15,2013-11-06 02:24:00,
2013-11-05 21:25:00,48.3,40.0,30.55,NW,307,1.0,1.0,73,0.00,,,0.00,0,Wunderground v.1.15,2013-11-06 02:25:00,
2013-11-05 21:27:00,48.3,40.4,30.54,NNW,327,1.0,1.0,74,0.00,,,0.00,0,Wunderground v.1.15,2013-11-06 02:27:00,
2013-11-05 21:28:00,48.3,40.4,30.53,WSW,244,0.0,2.0,74,0.00,,,0.00,0,Wunderground v.1.15,2013-11-06 02:28:00,
2013-11-05 21:29:00,48.3,40.4,30.53,SSW,203,0.0,2.0,74,0.00,,,0.00,0,Wunderground v.1.15,2013-11-06 02:29:00,
2013-11-05 21:30:00,48.4,40.1,30.52,SSW,200,0.0,2.0,73,0.00,,,0.00,0,Wunderground v.1.15,2013-11-06 02:30:00,
2013-11-05 21:34:00,48.5,40.2,30.52,SSW,201,1.0,2.0,73,0.00,,,0.00,0,Wunderground v.1.15,2013-11-06 02:34:00,
2013-11-05 21:35:00,48.5,40.2,30.53,SSW,209,1.0,2.0,73,0.00,,,0.00,0,Wunderground v.1.15,2013-11-06 02:35:00,
2013-11-05 21:36:00,48.5,40.2,30.53,SSW,211,1.0,2.0,73,0.00,,,0.00,0,Wunderground v.1.15,2013-11-06 02:36:00,
2013-11-05 21:39:00,48.4,40.1,30.53,NNE,15,1.0,2.0,73,0.00,,,0.00,0,Wunderground v.1.15,2013-11-06 02:39:00,
2013-11-05 21:40:00,48.4,40.1,30.53,West,280,1.0,2.0,73,0.00,,,0.00,0,Wunderground v.1.15,2013-11-06 02:40:00,
2013-11-05 21:42:00,48.3,40.0,30.52,SSE,163,1.0,2.0,73,0.00,,,0.00,0,Wunderground v.1.15,2013-11-06 02:42:00,
2013-11-05 21:43:00,48.3,40.4,30.51,SSW,201,1.0,4.0,74,0.00,,,0.00,0,Wunderground v.1.15,2013-11-06 02:43:00,
2013-11-05 21:44:00,48.3,40.4,30.50,SSW,206,2.0,5.0,74,0.00,,,0.00,0,Wunderground v.1.15,2013-11-06 02:44:00,
2013-11-05 21:45:00,48.3,40.4,30.50,WSW,244,2.0,5.0,74,0.00,,,0.00,0,Wunderground v.1.15,2013-11-06 02:45:00,
2013-11-05 21:46:00,48.3,40.4,30.51,WNW,300,2.0,5.0,74,0.00,,,0.00,0,Wunderground v.1.15,2013-11-06 02:46:00,
2013-11-05 21:47:00,48.3,40.4,30.53,WNW,300,2.0,5.0,74,0.00,,,0.00,0,Wunderground v.1.15,2013-11-06 02:47:00,
2013-11-05 21:50:00,48.2,40.3,30.54,WNW,303,3.0,3.0,74,0.00,,,0.00,0,Wunderground v.1.15,2013-11-06 02:50:00,
2013-11-05 21:51:00,48.1,40.2,30.55,WNW,296,3.0,3.0,74,0.00,,,0.00,0,Wunderground v.1.15,2013-11-06 02:51:00,
2013-11-05 21:53:00,48.1,40.2,30.54,WNW,288,2.0,3.0,74,0.00,,,0.00,0,Wunderground v.1.15,2013-11-06 02:53:00,
2013-11-05 21:54:00,48.1,40.2,30.54,WNW,288,2.0,3.0,74,0.00,,,0.00,0,Wunderground v.1.15,2013-11-06 02:54:00,
2013-11-05 21:55:00,48.1,40.2,30.54,WNW,288,1.0,3.0,74,0.00,,,0.00,0,Wunderground v.1.15,2013-11-06 02:55:00,
2013-11-05 21:58:00,48.1,40.2,30.53,WNW,288,1.0,3.0,74,0.00,,,0.00,0,Wunderground v.1.15,2013-11-06 02:58:00,
2013-11-05 22:01:00,48.1,40.2,30.53,WNW,288,0.0,0.0,74,0.00,,,0.00,0,Wunderground v.1.15,2013-11-06 03:01:00,
2013-11-05 22:02:00,48.1,40.2,30.53,WNW,288,0.0,0.0,74,0.00,,,0.00,0,Wunderground v.1.15,2013-11-06 03:02:00,
2013-11-05 22:03:00,48.1,40.2,30.54,WNW,288,0.0,0.0,74,0.00,,,0.00,0,Wunderground v.1.15,2013-11-06 03:03:00,
2013-11-05 22:04:00,48.1,40.2,30.54,WNW,288,0.0,0.0,74,0.00,,,0.00,0,Wunderground v.1.15,2013-11-06 03:04:00,
2013-11-05 22:05:00,48.1,40.2,30.54,WNW,288,0.0,0.0,74,0.00,,,0.00,0,Wunderground v.1.15,2013-11-06 03:05:00,
2013-11-05 22:08:00,48.1,40.5,30.54,WSW,254,0.0,0.0,75,0.00,,,0.00,0,Wunderground v.1.15,2013-11-06 03:08:00,
2013-11-05 22:09:00,48.1,40.5,30.54,South,191,0.0,1.0,75,0.00,,,0.00,0,Wunderground v.1.15,2013-11-06 03:09:00,
2013-11-05 22:11:00,48.0,40.5,30.54,South,191,0.0,0.0,75,0.00,,,0.00,0,Wunderground v.1.15,2013-11-06 03:11:00,
2013-11-05 22:12:00,48.0,40.5,30.54,South,191,0.0,0.0,75,0.00,,,0.00,0,Wunderground v.1.15,2013-11-06 03:12:00,
2013-11-05 22:14:00,47.9,40.4,30.54,South,191,0.0,1.0,75,0.00,,,0.00,0,Wunderground v.1.15,2013-11-06 03:14:00,
2013-11-05 22:15:00,47.9,40.4,30.54,South,191,0.0,1.0,75,0.00,,,0.00,0,Wunderground v.1.15,2013-11-06 03:15:00,
2013-11-05 22:18:00,47.9,40.7,30.53,SSW,192,1.0,2.0,76,0.00,,,0.00,0,Wunderground v.1.15,2013-11-06 03:18:00,
2013-11-05 22:19:00,47.9,40.4,30.53,SSW,192,1.0,2.0,75,0.00,,,0.00,0,Wunderground v.1.15,2013-11-06 03:19:00,
2013-11-05 22:21:00,48.0,40.5,30.53,SSW,211,1.0,1.0,75,0.00,,,0.00,0,Wunderground v.1.15,2013-11-06 03:21:00,
2013-11-05 22:23:00,48.1,40.5,30.53,SSW,211,1.0,1.0,75,0.00,,,0.00,0,Wunderground v.1.15,2013-11-06 03:23:00,
2013-11-05 22:24:00,48.1,40.5,30.53,SSW,211,1.0,1.0,75,0.00,,,0.00,0,Wunderground v.1.15,2013-11-06 03:24:00,
2013-11-05 22:25:00,48.1,40.5,30.54,SSW,211,1.0,1.0,75,0.00,,,0.00,0,Wunderground v.1.15,2013-11-06 03:25:00,
2013-11-05 22:27:00,48.1,40.5,30.54,SSW,211,1.0,1.0,75,0.00,,,0.00,0,Wunderground v.1.15,2013-11-06 03:27:00,
2013-11-05 22:28:00,48.1,40.5,30.53,SSW,211,1.0,1.0,75,0.00,,,0.00,0,Wunderground v.1.15,2013-11-06 03:28:00,
2013-11-05 22:29:00,48.1,40.5,30.53,SSW,211,0.0,1.0,75,0.00,,,0.00,0,Wunderground v.1.15,2013-11-06 03:29:00,
2013-11-05 22:30:00,48.1,40.5,30.53,SSW,211,0.0,0.0,75,0.00,,,0.00,0,Wunderground v.1.15,2013-11-06 03:30:00,
2013-11-05 22:31:00,48.1,40.5,30.53,SSW,211,0.0,0.0,75,0.00,,,0.00,0,Wunderground v.1.15,2013-11-06 03:31:00,
2013-11-05 22:32:00,48.1,40.5,30.53,SSW,211,0.0,0.0,75,0.00,,,0.00,0,Wunderground v.1.15,2013-11-06 03:32:00,
2013-11-05 22:35:00,48.0,40.8,30.53,ESE,110,0.0,0.0,76,0.00,,,0.00,0,Wunderground v.1.15,2013-11-06 03:35:00,
2013-11-05 22:39:00,48.1,40.9,30.53,SE,146,0.0,1.0,76,0.00,,,0.00,0,Wunderground v.1.15,2013-11-06 03:39:00,
2013-11-05 22:40:00,48.1,40.9,30.53,SE,146,0.0,0.0,76,0.00,,,0.00,0,Wunderground v.1.15,2013-11-06 03:40:00,
2013-11-05 22:41:00,48.1,40.9,30.53,SE,146,0.0,0.0,76,0.00,,,0.00,0,Wunderground v.1.15,2013-11-06 03:41:00,
2013-11-05 22:42:00,48.1,40.9,30.53,SE,146,0.0,0.0,76,0.00,,,0.00,0,Wunderground v.1.15,2013-11-06 03:42:00,
2013-11-05 22:43:00,48.2,41.0,30.53,SE,146,0.0,1.0,76,0.00,,,0.00,0,Wunderground v.1.15,2013-11-06 03:43:00,
2013-11-05 22:47:00,48.3,41.1,30.53,South,172,0.0,2.0,76,0.00,,,0.00,0,Wunderground v.1.15,2013-11-06 03:47:00,
2013-11-05 22:49:00,48.4,41.2,30.53,South,169,1.0,2.0,76,0.00,,,0.00,0,Wunderground v.1.15,2013-11-06 03:49:00,
2013-11-05 22:50:00,48.4,41.2,30.53,SE,136,1.0,1.0,76,0.00,,,0.00,0,Wunderground v.1.15,2013-11-06 03:50:00,
2013-11-05 22:52:00,48.5,41.3,30.53,SE,136,1.0,1.0,76,0.00,,,0.00,0,Wunderground v.1.15,2013-11-06 03:52:00,
2013-11-05 22:53:00,48.5,41.3,30.53,SE,136,1.0,1.0,76,0.00,,,0.00,0,Wunderground v.1.15,2013-11-06 03:53:00,
2013-11-05 22:57:00,48.6,41.4,30.53,SSE,159,0.0,2.0,76,0.00,,,0.00,0,Wunderground v.1.15,2013-11-06 03:57:00,
2013-11-05 22:58:00,48.7,41.5,30.53,SSW,199,0.0,4.0,76,0.00,,,0.00,0,Wunderground v.1.15,2013-11-06 03:58:00,
2013-11-05 22:59:00,48.8,41.6,30.53,SSE,159,1.0,4.0,76,0.00,,,0.00,0,Wunderground v.1.15,2013-11-06 03:59:00,
2013-11-05 23:00:00,48.8,41.9,30.53,South,184,1.0,1.0,77,0.00,,,0.00,0,Wunderground v.1.15,2013-11-06 04:00:00,
2013-11-05 23:01:00,48.9,42.0,30.53,South,171,1.0,2.0,77,0.00,,,0.00,0,Wunderground v.1.15,2013-11-06 04:01:00,
2013-11-05 23:05:00,49.2,42.0,30.53,SE,138,2.0,2.0,76,0.00,,,0.00,0,Wunderground v.1.15,2013-11-06 04:05:00,
2013-11-05 23:08:00,49.3,42.1,30.53,SSE,156,2.0,2.0,76,0.00,,,0.00,0,Wunderground v.1.15,2013-11-06 04:08:00,
2013-11-05 23:09:00,49.4,42.1,30.53,South,173,2.0,2.0,76,0.00,,,0.00,0,Wunderground v.1.15,2013-11-06 04:09:00,
2013-11-05 23:10:00,49.4,42.1,30.53,South,177,2.0,2.0,76,0.00,,,0.00,0,Wunderground v.1.15,2013-11-06 04:10:00,
2013-11-05 23:11:00,49.4,42.1,30.53,SE,140,1.0,3.0,76,0.00,,,0.00,0,Wunderground v.1.15,2013-11-06 04:11:00,
2013-11-05 23:14:00,49.2,41.6,30.53,SSE,150,1.0,3.0,75,0.00,,,0.00,0,Wunderground v.1.15,2013-11-06 04:14:00,
2013-11-05 23:15:00,49.2,42.0,30.53,SSE,152,1.0,3.0,76,0.00,,,0.00,0,Wunderground v.1.15,2013-11-06 04:15:00,
2013-11-05 23:18:00,49.1,41.9,30.53,SSE,161,1.0,3.0,76,0.00,,,0.00,0,Wunderground v.1.15,2013-11-06 04:18:00,
2013-11-05 23:21:00,49.2,42.0,30.53,SSE,157,1.0,2.0,76,0.00,,,0.00,0,Wunderground v.1.15,2013-11-06 04:21:00,
2013-11-05 23:22:00,49.2,42.0,30.52,SSE,156,1.0,2.0,76,0.00,,,0.00,0,Wunderground v.1.15,2013-11-06 04:22:00,
2013-11-05 23:24:00,49.2,42.0,30.52,South,176,1.0,2.0,76,0.00,,,0.00,0,Wunderground v.1.15,2013-11-06 04:24:00,
2013-11-05 23:26:00,49.3,42.1,30.52,South,171,1.0,2.0,76,0.00,,,0.00,0,Wunderground v.1.15,2013-11-06 04:26:00,
2013-11-05 23:30:00,49.3,42.1,30.52,South,171,1.0,1.0,76,0.00,,,0.00,0,Wunderground v.1.15,2013-11-06 04:30:00,
2013-11-05 23:31:00,49.3,42.1,30.52,SSE,166,1.0,1.0,76,0.00,,,0.00,0,Wunderground v.1.15,2013-11-06 04:31:00,
2013-11-05 23:33:00,49.3,42.1,30.52,SSE,165,1.0,1.0,76,0.00,,,0.00,0,Wunderground v.1.15,2013-11-06 04:33:00,
2013-11-05 23:36:00,49.4,42.1,30.52,South,169,1.0,1.0,76,0.00,,,0.00,0,Wunderground v.1.15,2013-11-06 04:36:00,
2013-11-05 23:37:00,49.3,42.1,30.52,South,169,1.0,1.0,76,0.00,,,0.00,0,Wunderground v.1.15,2013-11-06 04:37:00,
2013-11-05 23:38:00,49.3,42.1,30.52,South,169,1.0,1.0,76,0.00,,,0.00,0,Wunderground v.1.15,2013-11-06 04:38:00,
2013-11-05 23:40:00,49.3,42.1,30.52,South,169,1.0,1.0,76,0.00,,,0.00,0,Wunderground v.1.15,2013-11-06 04:40:00,
2013-11-05 23:43:00,49.3,42.1,30.52,SSE,167,1.0,1.0,76,0.00,,,0.00,0,Wunderground v.1.15,2013-11-06 04:43:00,
2013-11-05 23:44:00,49.2,42.0,30.52,SSE,167,1.0,1.0,76,0.00,,,0.00,0,Wunderground v.1.15,2013-11-06 04:44:00,
2013-11-05 23:47:00,49.2,42.0,30.52,SSE,152,1.0,1.0,76,0.00,,,0.00,0,Wunderground v.1.15,2013-11-06 04:47:00,
2013-11-05 23:49:00,49.2,42.3,30.52,SSE,158,1.0,2.0,77,0.00,,,0.00,0,Wunderground v.1.15,2013-11-06 04:49:00,
2013-11-05 23:50:00,49.3,42.4,30.52,SSE,155,1.0,2.0,77,0.00,,,0.00,0,Wunderground v.1.15,2013-11-06 04:50:00,
2013-11-05 23:52:00,49.3,42.1,30.52,SSE,160,1.0,4.0,76,0.00,,,0.00,0,Wunderground v.1.15,2013-11-06 04:52:00,
2013-11-05 23:53:00,49.3,42.1,30.52,SSE,163,1.0,4.0,76,0.00,,,0.00,0,Wunderground v.1.15,2013-11-06 04:53:00,
2013-11-05 23:57:00,49.3,42.1,30.52,SSE,150,2.0,4.0,76,0.00,,,0.00,0,Wunderground v.1.15,2013-11-06 04:57:00,
2013-11-05 23:58:00,49.3,42.1,30.52,SSE,150,2.0,4.0,76,0.00,,,0.00,0,Wunderground v.1.15,2013-11-06 04:58:00,